GFSMA_sfc_dewp_048.txt.gz
Dewpoint
64 62 61 59 58 56 55 55 54 52 52 50 49 48 47 46 46 43 43 54 53 54 55 56 57 58 58 58 58 59 59 59 60 61 61 62 63 64 64 64 63 64 63
63 61 59 57 56 54 52 52 51 49 48 48 46 47 47 46 45 46 43 44 53 52 51 52 52 53 54 55 55 57 58 58 59 59 62 62 62 62 63 64 63 63 63
62 61 59 55 52 52 52 51 49 48 45 44 44 44 44 45 43 44 44 43 45 49 46 47 48 48 49 50 52 54 55 56 57 58 59 62 62 62 62 63 63 63 63
58 55 53 52 51 48 47 46 45 44 43 43 43 42 41 41 41 40 41 43 41 39 44 43 44 44 46 47 49 51 53 54 55 57 57 59 61 61 62 62 63 63 63
52 50 49 48 48 47 46 45 44 44 42 40 38 34 34 35 33 29 39 42 43 41 40 43 40 41 41 45 47 49 50 52 54 54 56 57 57 59 60 61 62 62 62
48 47 47 48 46 45 45 44 43 41 39 37 33 30 35 34 33 37 39 38 39 40 38 39 37 35 38 41 44 47 48 50 50 52 52 54 55 56 56 59 60 61 61
46 48 46 46 46 45 44 43 40 38 35 37 36 31 31 34 42 39 38 36 37 36 37 35 34 34 35 38 37 43 46 48 48 47 48 49 52 53 54 55 58 60 61
47 46 47 46 44 40 41 41 40 36 34 35 36 35 27 27 29 37 37 36 38 36 34 34 36 35 35 35 38 37 41 44 45 45 46 47 48 50 52 53 55 57 59
46 47 46 44 42 39 36 39 38 38 34 34 36 35 31 27 31 30 32 32 35 33 34 34 35 35 35 35 36 36 39 40 43 42 43 43 44 46 48 50 52 55 56
46 44 42 41 41 40 39 37 34 39 36 33 32 31 35 34 32 28 29 28 29 28 32 32 33 34 34 33 35 39 37 39 41 41 41 41 42 44 45 48 51 54 54
43 40 40 41 40 38 39 40 39 38 36 34 32 32 33 32 32 30 29 27 27 28 28 29 31 32 33 33 33 37 37 40 38 37 39 40 40 40 43 45 48 50 53
36 38 38 40 41 40 40 39 39 39 38 37 34 35 34 33 32 32 34 33 30 28 28 28 33 33 33 31 30 35 37 37 38 36 36 38 39 39 39 42 44 48 50
33 35 37 40 39 40 41 40 39 39 38 37 37 35 35 33 32 32 32 29 28 27 26 28 28 29 29 30 28 35 34 35 37 35 35 35 37 38 38 38 41 45 49
35 38 40 41 41 41 41 40 39 38 39 39 37 36 33 32 32 32 32 32 29 23 20 23 21 23 26 26 29 34 28 33 37 35 34 34 35 36 38 38 38 41 46
37 39 40 41 41 40 40 40 39 38 38 39 38 37 34 29 29 27 26 25 26 24 19 20 19 22 21 22 25 26 26 30 33 35 35 33 33 34 36 38 38 38 42
36 37 37 37 37 38 38 38 37 35 36 36 33 31 29 26 25 25 22 22 22 21 18 17 17 20 21 17 23 26 26 32 31 33 35 33 34 34 34 37 38 37 40
29 30 30 33 34 35 37 37 37 35 34 33 31 29 27 27 25 24 24 22 21 20 17 18 17 19 21 22 21 25 26 25 25 34 35 32 31 32 32 33 38 38 40
31 31 32 34 34 35 37 37 35 36 33 30 28 27 26 21 25 25 22 22 21 21 19 18 19 18 20 21 21 22 21 20 22 26 32 27 29 30 31 34 35 38 39
32 32 33 34 34 36 35 36 34 35 31 28 27 27 26 25 24 23 23 21 21 18 20 20 19 19 18 19 19 21 22 23 19 28 31 30 31 30 29 30 32 36 39
33 34 34 35 36 36 35 35 32 30 29 27 28 28 26 24 24 23 21 20 18 17 18 21 20 17 17 18 18 17 18 20 21 18 26 29 28 28 30 29 31 32 37
33 33 34 34 35 33 30 31 29 28 28 27 26 23 22 21 21 21 19 19 19 18 17 17 16 17 17 17 17 17 17 18 21 21 22 23 23 23 25 31 29 32 34
32 33 32 32 31 28 29 29 29 26 25 23 20 20 18 19 18 21 21 21 21 19 18 18 19 19 20 19 19 20 23 20 22 23 26 26 24 26 23 24 31 30 30
33 33 33 32 31 30 29 30 26 24 23 21 20 18 16 13 20 18 20 21 23 26 27 28 25 22 23 24 22 22 20 20 21 22 25 28 27 26 26 21 29 28 30
33 32 33 33 31 27 28 27 25 24 23 22 21 20 19 18 19 21 18 22 20 20 20 18 22 24 23 22 23 25 28 26 25 22 23 24 27 27 28 28 31 30 31
30 29 32 32 29 27 25 26 24 25 24 23 21 20 19 19 20 21 22 23 21 20 20 22 23 24 25 25 27 31 27 26 26 25 24 28 25 26 26 30 33 32 31
28 29 28 29 28 28 24 23 23 27 28 25 22 19 22 19 19 19 21 23 22 20 18 19 20 20 22 24 27 31 28 26 23 24 21 29 22 21 24 28 29 32 34

GFSMA_sfc_dewp_051.txt.gz
Dewpoint
66 65 65 59 58 57 54 54 53 52 52 51 50 50 49 49 49 46 46 55 54 53 53 54 55 55 55 55 55 57 58 58 59 59 60 62 62 62 63 63 64 64 64
63 61 60 58 56 54 53 53 52 51 50 51 49 48 48 48 47 47 44 46 54 52 51 50 50 51 52 52 53 54 55 56 57 58 59 60 61 62 62 62 63 63 63
62 61 58 56 54 52 53 51 50 51 48 46 46 45 45 45 43 44 43 42 44 51 49 47 46 46 47 49 50 51 52 53 55 55 57 58 59 60 61 62 62 62 63
58 56 54 53 52 49 48 49 47 45 45 43 42 40 40 37 38 40 36 36 40 40 45 44 41 42 42 44 47 49 50 50 53 53 53 56 57 58 59 60 61 62 62
53 52 50 49 48 46 47 46 45 44 41 39 36 35 38 34 37 32 35 38 42 41 40 46 42 45 39 40 43 47 48 49 50 50 51 52 54 55 56 57 58 61 62
48 47 48 49 47 46 46 45 44 41 38 36 31 33 38 35 35 35 39 37 38 39 38 38 37 36 42 38 39 43 46 48 48 47 48 48 49 51 53 54 56 58 60
47 49 46 46 47 43 44 43 40 39 36 35 33 33 34 37 38 36 37 37 37 36 37 35 34 33 33 42 39 39 41 43 45 45 45 45 46 47 49 51 53 55 57
47 45 48 45 44 42 40 40 40 37 35 34 32 31 30 29 29 33 36 35 39 34 33 33 34 34 34 32 37 39 39 39 40 43 43 43 44 44 45 47 49 51 54
46 46 45 44 42 39 36 39 39 37 34 33 35 31 28 26 28 29 32 31 37 32 31 30 31 31 32 33 35 37 38 37 38 40 40 41 42 42 43 45 46 48 52
45 42 41 40 41 40 40 39 35 39 37 32 32 29 33 32 28 28 31 30 31 29 34 33 32 31 33 32 37 40 37 37 36 37 37 39 40 41 41 41 43 44 48
42 40 38 39 40 39 39 40 40 38 36 34 32 32 33 33 33 32 29 30 31 30 30 31 32 32 31 32 33 36 37 37 33 34 35 36 37 39 39 39 40 42 44
35 36 35 39 39 39 39 38 43 41 39 38 36 37 35 34 33 35 35 31 30 28 27 28 30 30 33 32 32 37 39 39 35 32 33 35 35 36 37 39 39 40 41
33 35 37 38 36 37 38 40 41 41 38 38 39 37 36 34 33 31 33 31 27 26 25 28 27 26 22 34 32 37 35 36 36 35 33 35 34 34 35 36 38 39 39
36 38 38 37 37 37 40 38 42 41 39 41 39 38 36 35 33 31 29 29 28 23 22 23 25 26 26 26 30 36 28 36 35 35 33 32 33 33 33 33 35 37 38
33 34 36 36 35 35 35 38 39 39 40 39 38 39 35 34 31 27 26 26 26 25 20 21 21 22 23 25 27 28 29 30 34 34 33 34 32 33 32 32 33 35 36
31 30 31 30 30 32 33 33 38 37 38 39 35 34 32 30 28 27 25 25 24 22 20 19 19 23 24 16 23 27 27 33 32 34 34 34 35 34 32 32 33 35 37
29 29 29 30 31 31 31 33 37 36 33 34 33 33 31 29 28 26 26 26 22 23 21 21 21 24 25 25 23 26 26 27 26 30 32 34 34 33 31 31 31 32 33
31 31 31 30 31 30 31 32 32 33 32 32 32 32 30 25 28 26 24 22 22 22 21 20 21 21 21 25 24 25 20 17 23 25 30 33 31 32 33 33 32 34 34
31 31 31 31 31 34 36 35 34 34 34 33 31 29 28 28 25 22 23 22 22 17 21 20 19 21 22 23 21 22 21 23 19 27 29 30 32 33 34 33 33 33 33
32 31 31 31 34 34 33 32 32 31 31 30 30 29 26 23 22 23 19 19 18 18 18 18 17 16 18 19 21 19 20 22 22 18 24 27 31 31 32 34 33 33 33
31 30 31 31 32 32 30 29 30 30 28 28 27 22 22 22 21 20 17 19 19 17 17 15 15 17 16 17 20 22 21 21 24 25 22 22 24 26 28 32 31 33 34
30 31 32 33 33 30 30 30 29 27 26 23 21 21 21 23 22 24 25 24 21 17 17 19 19 20 21 19 21 26 26 24 23 27 27 27 27 27 26 30 31 30 31
30 32 33 32 34 34 31 30 26 25 25 23 22 21 19 15 22 20 22 22 22 25 26 26 25 21 23 26 24 23 22 22 23 26 27 28 30 29 30 22 32 30 30
30 31 32 33 33 35 30 28 26 25 24 23 23 22 21 20 21 21 19 18 19 20 21 20 22 22 22 21 22 22 25 27 28 26 26 25 28 28 30 29 30 32 32
29 29 30 31 32 34 28 27 25 26 24 24 23 22 21 19 21 21 19 20 19 19 20 23 22 22 23 24 25 28 27 28 27 25 28 28 29 28 30 30 32 32 33
27 29 29 30 30 31 27 26 24 27 32 25 23 21 24 20 19 19 20 21 20 19 15 17 19 21 22 23 27 27 29 28 27 26 26 27 26 27 26 30 31 33 35

GFSMA_sfc_dewp_054.txt.gz
Dewpoint
63 63 64 62 61 59 57 55 55 54 53 52 53 52 50 49 50 49 50 55 55 52 51 52 52 52 52 52 53 54 55 55 56 57 58 60 61 62 62 62 62 62 63
64 63 62 62 59 57 56 54 55 52 51 51 50 51 50 50 48 48 46 49 55 53 51 50 50 49 49 48 49 51 52 53 54 55 55 58 59 60 61 62 62 62 62
62 59 57 55 54 54 52 51 50 51 49 47 45 43 43 43 40 41 41 42 46 53 50 47 44 44 44 45 46 46 48 50 51 52 55 55 56 57 58 59 60 62 62
57 57 55 54 53 51 50 50 49 46 45 44 42 40 41 40 37 38 40 39 41 45 48 45 42 43 43 42 44 45 48 49 49 50 50 51 53 54 55 56 57 58 60
54 53 53 52 52 50 51 48 47 46 42 40 36 35 40 38 39 35 37 40 42 42 41 48 48 46 41 40 42 44 45 47 47 47 47 46 47 50 53 53 54 56 57
52 52 52 50 50 48 48 47 45 43 42 40 34 34 38 40 37 37 36 39 40 41 39 38 39 38 45 39 40 41 43 44 44 45 45 45 45 45 46 47 49 52 54
50 51 51 50 49 47 46 43 42 41 40 40 37 34 35 34 34 34 36 34 35 37 39 38 38 36 35 42 37 39 39 42 43 42 42 43 43 43 44 45 46 47 50
49 48 49 47 47 45 43 43 42 41 39 40 35 35 31 31 33 32 35 34 36 34 32 31 34 34 34 35 38 42 40 40 40 40 40 40 41 42 42 43 44 45 46
48 47 47 46 44 43 42 42 41 40 38 38 38 34 30 28 31 33 33 35 35 34 35 33 31 32 33 35 36 39 37 35 36 38 39 38 38 39 41 41 42 43 44
46 45 43 43 43 43 42 42 39 40 39 37 37 36 36 35 32 31 33 34 35 32 33 34 34 33 33 34 38 40 40 36 32 33 35 37 37 38 38 39 40 41 42
46 44 42 43 42 43 43 43 43 42 40 38 36 36 35 36 35 34 32 32 33 33 31 32 32 30 29 30 33 37 40 39 34 32 33 34 35 36 37 38 39 40 40
41 40 39 42 43 42 42 42 40 41 41 40 39 38 37 36 35 35 33 31 31 30 30 29 29 30 31 32 35 40 40 37 37 33 33 32 33 35 36 37 38 39 39
40 41 42 41 41 40 41 41 41 41 41 40 39 39 39 38 37 35 34 32 29 28 27 28 28 27 26 30 34 37 39 39 39 37 31 31 31 32 33 35 36 37 37
41 42 41 40 40 40 40 40 41 41 41 41 39 39 39 39 36 34 32 29 26 25 25 25 25 27 26 26 31 37 33 36 36 37 36 32 31 31 31 32 34 34 35
34 37 37 36 36 37 37 38 37 39 38 39 39 39 38 38 36 33 30 28 27 24 22 23 23 23 26 26 27 26 26 32 36 35 35 35 34 32 32 33 34 33 34
35 35 35 35 35 35 36 36 35 37 37 38 37 36 35 35 32 31 28 28 27 25 22 22 21 23 24 22 26 25 25 32 32 34 34 33 34 33 34 33 34 33 32
34 34 34 34 34 34 35 35 36 34 35 35 34 34 34 33 31 30 30 28 26 26 22 22 23 23 23 24 23 25 26 23 23 30 33 32 33 33 33 35 34 32 32
35 34 35 34 34 34 37 36 35 35 34 33 34 33 32 29 30 29 28 26 25 23 21 19 19 20 21 23 23 24 21 19 21 25 30 32 32 32 34 34 34 35 34
34 34 34 35 34 35 34 34 34 33 33 34 32 32 30 29 28 26 24 22 21 19 21 19 18 19 20 22 21 22 21 22 21 26 28 30 31 31 32 35 35 35 34
34 34 34 34 35 33 34 33 30 32 32 31 32 31 30 27 23 21 19 19 18 19 19 18 17 17 18 19 21 20 22 23 23 21 25 27 30 30 31 34 34 34 34
34 34 34 34 35 34 32 32 31 30 31 30 30 27 24 25 26 22 16 19 20 20 19 16 17 17 19 20 21 21 22 26 25 26 25 25 25 26 27 30 31 34 34
33 34 34 34 34 32 32 31 29 28 28 27 25 24 23 25 26 25 27 25 24 20 19 19 21 22 22 19 23 27 25 22 20 25 26 25 28 27 27 28 31 33 33
34 34 33 33 33 33 32 31 27 25 26 26 25 24 21 18 26 22 23 23 21 22 23 23 22 24 26 25 23 21 19 19 20 23 24 24 26 26 28 24 30 33 33
33 32 31 32 34 33 34 32 28 25 26 26 25 24 23 22 22 21 20 20 18 19 20 19 23 25 22 20 21 21 23 24 24 24 26 25 26 26 27 28 32 32 33
31 31 30 30 31 34 32 30 26 26 26 26 25 25 24 22 21 22 21 20 19 19 20 21 19 20 23 24 24 25 24 24 22 25 28 29 26 26 27 27 29 32 32
29 32 31 31 32 32 31 29 27 27 26 27 25 24 24 21 21 20 19 18 18 19 18 17 18 21 23 23 26 27 28 25 25 21 26 26 27 27 25 29 31 30 29

GFSMA_sfc_dewp_057.txt.gz
Dewpoint
61 62 61 57 56 56 54 53 53 49 50 50 49 48 48 48 48 48 47 55 56 54 53 53 52 50 49 48 49 50 51 52 53 54 55 57 58 59 60 61 62 62 62
60 60 58 57 56 54 50 50 48 49 48 47 45 43 42 43 38 38 40 43 55 54 51 49 47 46 46 46 45 46 48 49 51 52 54 54 55 56 57 58 59 60 61
57 55 54 52 51 49 49 49 46 45 44 42 41 40 41 39 38 37 38 40 53 53 51 46 43 43 44 44 44 46 47 48 47 49 49 50 51 52 54 54 56 57 58
54 53 50 49 50 49 49 47 45 43 41 40 38 37 39 37 37 38 36 37 42 48 50 49 45 43 42 43 42 43 44 46 45 45 46 46 46 47 49 51 52 53 55
52 51 50 49 50 49 47 45 44 42 40 39 35 35 36 36 37 36 35 36 40 44 43 49 49 47 42 39 41 41 43 43 43 43 44 44 44 45 45 45 46 48 50
51 51 49 48 47 45 45 44 41 40 39 39 35 34 34 35 35 35 35 33 33 33 39 37 39 40 45 38 38 39 40 42 42 42 42 42 42 42 43 44 45 46 47
49 49 48 47 45 43 42 41 40 38 38 39 35 33 34 34 31 33 35 35 34 32 33 33 34 34 35 42 42 43 42 41 42 42 41 40 40 40 41 42 42 43 45
48 48 46 44 42 40 41 40 39 38 37 38 34 35 31 31 33 33 34 35 35 35 34 31 33 33 34 35 35 38 38 37 37 38 38 38 38 39 39 39 41 42 43
46 45 43 43 41 40 39 38 38 37 36 37 36 33 32 30 32 33 33 35 34 34 34 33 32 33 33 33 36 38 40 37 35 36 36 36 37 38 37 38 38 40 41
45 43 41 40 40 41 39 40 39 38 38 36 36 36 34 34 32 31 34 34 34 33 33 32 33 31 30 31 34 40 42 40 36 34 34 35 36 36 36 36 37 38 40
45 43 41 39 40 41 41 41 41 38 38 36 36 35 35 35 34 33 31 32 33 32 32 32 30 30 30 30 31 34 42 40 38 34 33 33 34 34 35 35 36 36 38
40 40 40 40 39 38 38 39 39 39 39 39 38 37 37 36 35 34 32 31 31 31 31 29 28 30 29 30 32 39 39 39 38 36 35 34 32 33 33 34 35 35 36
40 40 39 38 38 38 38 39 38 39 40 39 38 38 38 38 38 37 36 33 30 29 28 28 28 28 25 29 28 37 38 40 39 38 32 31 31 31 32 33 34 34 34
40 36 34 34 34 34 35 35 36 37 39 39 37 37 38 38 39 38 34 34 27 25 25 25 27 27 27 26 29 34 27 33 36 38 35 31 31 31 31 32 33 33 33
32 33 33 32 33 33 34 34 35 34 37 37 36 37 37 38 38 36 32 29 28 23 23 24 24 24 25 25 27 27 25 29 34 34 34 32 30 29 30 31 31 32 33
32 32 32 32 32 33 34 35 36 36 36 36 35 34 34 35 33 31 29 29 28 26 23 24 23 23 24 23 25 27 25 28 29 31 32 34 34 30 29 30 30 30 31
31 32 32 32 33 34 36 36 35 34 34 33 33 33 33 31 31 30 30 30 27 24 21 21 22 22 21 22 24 25 26 25 25 30 31 32 32 33 34 33 33 32 33
32 32 33 33 34 36 34 34 33 33 33 31 32 32 32 30 29 29 26 22 21 20 20 18 20 20 20 21 22 22 21 19 22 25 30 32 32 32 33 33 34 34 34
31 32 33 33 34 34 32 33 33 33 31 31 32 30 30 29 26 22 20 19 19 18 20 20 19 19 18 20 20 21 22 23 23 26 28 29 30 31 32 32 32 34 34
32 33 33 34 34 33 33 33 31 30 31 31 31 31 30 25 20 18 18 17 18 20 20 19 18 17 18 19 21 21 21 23 25 25 26 28 30 29 30 31 32 32 34
33 33 34 34 34 33 32 32 32 31 29 28 28 27 25 24 27 21 17 19 20 19 19 18 17 18 19 20 21 20 25 25 22 24 23 22 26 25 25 29 29 31 32
32 33 33 33 33 32 32 31 29 28 31 28 25 25 22 25 25 26 25 24 23 19 18 19 19 20 20 21 27 23 22 19 16 22 23 22 24 23 25 27 30 32 33
33 33 31 31 32 33 33 32 32 28 27 27 25 23 22 23 24 21 21 21 20 20 21 21 20 20 23 23 22 20 19 20 20 22 23 23 25 25 27 25 30 31 32
31 31 31 30 31 33 34 33 31 29 25 25 24 23 23 22 22 21 20 20 19 19 20 18 21 20 20 19 21 21 23 23 24 23 25 24 24 26 27 27 30 31 32
29 30 30 30 31 33 34 33 31 24 25 26 25 24 25 22 22 21 20 19 18 19 19 22 21 22 23 24 24 24 24 24 21 22 25 23 23 25 26 28 28 30 32
29 31 30 30 31 30 34 33 30 25 24 26 25 25 24 21 21 21 19 16 16 17 20 19 19 20 22 22 25 26 25 22 22 20 23 21 22 24 24 26 29 31 31

GFSMA_sfc_dewp_060.txt.gz
Dewpoint
61 59 57 56 54 53 51 49 49 47 45 44 43 41 42 40 37 39 41 50 55 52 52 52 50 49 48 47 47 48 49 50 50 54 54 53 53 54 56 56 57 58 59
58 57 55 54 53 50 49 47 45 43 42 41 39 39 40 37 36 38 38 41 55 55 51 48 46 46 45 45 46 47 48 47 48 49 49 50 50 51 52 53 53 54 56
55 53 52 50 49 49 47 45 43 42 40 39 37 37 38 37 37 36 35 37 49 54 52 46 43 45 43 43 45 45 46 46 45 45 46 45 46 46 47 48 49 49 51
52 49 49 49 50 48 46 44 42 40 39 38 36 35 35 36 35 36 35 34 42 48 49 49 44 43 41 39 44 43 42 43 42 43 44 44 44 45 45 46 46 47 49
51 49 49 49 49 47 45 44 42 40 38 37 34 34 33 34 34 35 34 33 33 37 41 44 46 46 41 38 39 38 40 41 41 41 41 41 42 42 42 43 44 45 46
51 50 48 47 45 43 43 41 38 39 38 37 34 32 34 34 33 34 35 34 34 34 34 34 36 40 44 43 42 41 43 42 42 41 40 39 40 40 40 41 42 43 44
49 47 47 44 43 41 41 39 39 37 36 37 33 34 34 33 33 33 35 35 34 34 33 33 34 34 35 38 36 36 38 38 39 38 38 38 38 38 38 39 40 41 42
48 46 44 42 41 40 39 38 38 37 37 37 34 33 31 32 33 33 33 35 33 34 33 32 33 33 33 34 36 35 37 37 37 37 36 37 37 38 38 38 38 38 40
46 45 43 42 40 40 39 38 38 36 35 36 36 34 31 30 32 33 33 34 34 33 33 32 32 29 29 30 33 35 41 40 36 37 36 36 36 37 37 37 37 37 38
44 43 42 41 40 41 39 40 39 38 37 36 36 36 35 34 31 31 33 34 34 33 33 32 31 29 29 30 32 36 40 43 39 37 36 35 35 36 36 36 36 36 36
45 43 41 40 40 41 39 38 39 37 38 36 36 36 34 34 34 32 32 32 33 32 33 32 29 29 29 29 29 34 40 42 41 37 35 34 35 35 34 35 35 35 36
42 41 39 39 38 38 38 38 38 38 38 38 38 37 36 35 34 33 33 32 31 32 32 30 28 28 29 28 29 35 39 39 42 36 34 33 34 33 33 34 34 35 35
41 39 39 36 36 35 34 34 34 34 36 38 37 37 38 37 37 37 36 36 34 30 29 28 27 27 27 27 27 32 31 34 35 33 33 31 31 32 32 33 34 35 34
39 39 35 33 32 33 33 34 34 34 35 37 36 36 37 37 38 38 37 35 33 26 25 25 27 26 27 27 30 33 27 33 34 35 30 29 30 30 31 32 32 33 33
36 34 32 32 32 32 34 35 35 35 35 35 35 35 36 36 36 37 36 34 31 24 24 24 24 24 25 25 27 27 26 29 34 31 30 28 28 28 29 30 30 31 31
33 32 31 31 31 34 36 35 34 34 34 33 33 33 33 34 33 31 30 30 30 32 27 24 22 22 22 20 22 25 25 27 28 30 32 30 28 28 28 28 29 29 30
32 31 32 31 32 35 36 34 34 34 33 32 32 32 33 32 31 31 32 32 27 23 20 20 21 21 20 20 20 22 24 23 24 27 30 30 32 32 31 31 32 30 30
32 32 32 32 33 36 35 33 32 33 32 31 30 32 32 31 29 27 24 21 20 19 19 17 19 19 19 19 20 21 20 20 23 25 27 29 28 28 30 32 33 34 33
31 31 32 33 34 36 33 32 33 33 33 31 31 31 30 29 27 23 20 19 19 18 20 19 19 19 19 19 19 20 21 23 23 26 26 26 25 26 27 30 33 33 33
32 33 34 34 35 34 33 33 33 31 30 31 32 31 30 29 24 20 18 17 18 19 19 19 18 17 18 20 21 21 22 23 24 22 22 23 24 26 29 28 27 28 31
33 34 34 34 34 34 33 33 32 32 29 28 30 29 26 24 25 22 18 19 20 18 18 17 16 18 18 19 19 23 22 21 20 20 19 20 24 22 23 26 27 29 29
33 33 33 33 33 32 33 33 30 28 31 32 32 30 26 25 27 27 26 24 22 18 18 17 17 18 18 20 24 21 19 19 18 21 22 21 24 23 24 25 28 29 30
32 31 31 31 31 32 34 32 32 30 30 27 27 25 22 23 26 24 24 22 20 20 21 19 18 19 20 20 19 19 19 20 20 21 24 22 23 23 25 26 29 30 31
30 29 30 31 30 31 34 34 33 27 28 27 25 24 23 23 22 22 20 20 19 18 18 17 20 20 19 20 21 22 25 25 25 24 24 21 22 23 25 26 29 31 32
30 29 29 30 30 30 34 34 32 29 25 25 26 25 24 24 24 24 22 20 19 18 16 20 21 22 23 22 23 24 22 21 19 20 23 22 22 23 23 25 27 30 32
29 30 29 30 30 29 32 34 33 26 26 26 26 25 27 22 24 23 21 19 17 17 17 20 19 20 22 21 23 23 23 20 20 19 21 23 22 24 23 23 26 27 28

GFSMA_sfc_dewp_063.txt.gz
Dewpoint
58 57 55 53 51 50 48 46 44 42 41 39 40 38 37 37 37 38 39 46 54 52 49 50 49 48 48 47 48 48 48 49 49 50 50 50 50 50 50 51 51 52 53
56 55 53 52 51 48 46 44 42 40 39 38 37 37 36 36 35 35 37 40 49 55 51 48 46 46 45 46 47 46 47 47 46 46 46 46 47 47 47 48 48 50 51
54 52 51 49 48 46 45 42 40 39 38 37 35 34 35 36 35 35 34 40 48 52 52 46 43 44 42 42 43 43 45 44 43 44 45 45 45 45 45 45 46 47 48
51 49 49 49 48 46 44 42 40 38 38 37 34 33 33 34 34 34 34 33 40 44 43 46 44 41 39 38 42 40 41 40 41 41 42 43 42 42 41 41 43 44 45
49 49 49 48 46 45 44 41 40 38 36 35 34 32 33 33 34 34 34 33 34 34 34 40 43 44 40 38 38 38 38 41 40 40 39 39 39 40 40 40 40 42 43
50 48 47 47 44 43 41 39 37 38 37 35 33 32 34 33 34 34 34 34 33 33 33 33 34 39 43 38 40 41 41 42 41 40 39 38 38 38 38 39 40 40 41
49 47 45 43 42 41 39 38 38 36 36 36 33 34 33 33 33 33 35 34 33 33 33 33 34 33 33 40 40 37 38 40 40 40 40 40 37 38 39 39 39 39 40
47 45 43 42 40 41 39 38 37 37 37 37 34 33 31 32 33 33 33 34 33 33 33 32 32 31 30 30 34 37 38 40 39 39 38 37 37 37 37 37 38 38 38
46 45 43 42 40 40 38 37 37 36 35 36 36 34 31 30 32 33 33 34 33 33 33 32 32 28 28 29 30 34 38 39 38 37 37 37 37 37 37 37 37 37 37
46 44 42 41 40 40 39 39 39 37 37 36 36 36 35 33 31 31 33 33 34 33 33 33 32 28 29 29 30 34 40 41 41 40 38 37 36 36 36 36 36 36 37
44 42 40 40 40 40 38 37 37 37 38 36 35 35 34 34 33 32 29 31 33 34 33 33 31 29 28 28 28 31 40 40 42 37 34 35 34 36 36 36 35 36 38
42 40 39 39 39 39 37 36 35 35 36 37 37 37 36 34 33 32 30 31 31 33 33 32 30 28 28 28 29 34 37 34 35 34 34 34 33 33 34 34 35 35 36
40 39 40 40 37 33 33 33 33 33 33 34 35 36 36 36 36 35 34 33 34 34 31 28 28 27 25 27 29 31 32 33 34 31 30 30 30 31 32 33 34 35 35
39 41 41 36 33 32 33 33 33 34 35 35 34 34 35 36 36 36 35 32 31 31 25 25 26 25 24 26 27 29 28 29 31 32 32 30 30 30 30 31 31 32 33
42 39 35 33 32 33 34 34 34 34 33 34 33 33 34 35 35 35 36 35 34 28 24 24 23 24 24 24 24 24 24 27 29 29 28 28 28 29 29 29 29 30 31
37 35 33 33 32 33 35 35 34 34 33 32 33 32 32 33 32 31 31 31 32 31 28 26 23 22 21 20 21 21 22 26 26 26 26 27 27 28 28 29 29 30 30
34 33 33 32 32 34 35 34 33 33 31 32 31 31 31 33 31 31 33 33 33 29 26 20 22 21 20 20 20 20 23 22 23 25 26 26 27 29 30 30 30 30 29
33 33 32 32 32 33 35 33 31 32 31 31 31 30 31 31 30 28 26 23 21 20 19 16 18 19 19 19 19 20 20 20 22 25 27 28 27 27 27 28 29 30 31
31 31 32 32 32 33 35 33 32 32 32 32 31 30 30 30 29 26 22 21 20 18 19 19 19 19 19 19 19 20 21 22 23 26 24 24 24 25 26 26 27 29 31
31 32 33 34 34 34 34 33 33 33 31 31 31 31 31 30 29 27 21 19 18 18 19 19 18 17 17 19 20 20 20 22 20 20 22 23 24 25 26 27 27 28 28
31 32 33 33 34 34 33 33 33 32 31 29 28 30 30 28 28 26 20 19 19 19 18 17 16 15 16 18 19 21 21 19 19 20 20 20 21 22 23 26 27 28 29
32 31 31 32 32 32 33 35 33 30 29 29 29 30 31 30 28 30 28 24 22 18 17 17 15 15 17 19 19 20 19 18 17 21 21 22 23 22 23 24 27 29 30
31 30 30 29 30 31 33 35 33 29 29 29 29 28 26 22 25 25 28 27 25 22 22 19 16 17 17 19 18 19 19 20 21 22 23 21 23 22 23 23 27 29 29
31 30 29 29 30 30 33 34 33 30 28 28 29 26 24 22 24 23 21 20 20 19 19 16 18 20 20 20 20 20 23 23 23 22 23 20 21 22 23 24 28 28 29
29 29 29 29 29 29 32 33 33 29 28 28 26 26 25 24 25 27 23 21 20 20 18 19 21 22 22 23 21 19 18 19 17 18 21 21 20 21 23 24 25 28 30
28 28 28 29 30 29 31 33 33 29 29 27 25 26 29 27 26 26 22 19 18 19 17 17 19 20 20 21 22 21 19 18 18 16 21 20 19 23 21 23 24 25 26

GFSMA_sfc_dewp_066.txt.gz
Dewpoint
56 55 53 51 49 47 44 43 41 40 39 38 38 37 37 37 36 38 40 47 51 54 48 50 50 48 48 48 48 48 48 48 48 48 47 48 49 48 48 48 49 49 50
55 53 52 50 49 45 43 41 39 38 37 37 36 37 37 36 35 36 38 45 54 53 51 48 46 46 45 46 46 46 47 46 45 46 46 46 46 45 44 44 46 46 48
53 50 49 47 46 44 42 40 39 39 37 36 34 35 36 35 35 35 35 42 47 47 49 48 44 43 41 41 43 43 43 42 42 43 43 44 43 43 42 42 43 44 45
50 49 48 48 47 45 43 41 39 37 37 35 33 34 34 35 35 35 34 35 38 36 41 48 47 44 39 39 41 41 41 41 40 40 41 41 41 41 41 41 42 42 43
50 50 49 47 46 45 43 41 40 37 35 35 34 34 35 34 35 33 35 35 36 35 35 40 44 46 43 40 39 41 40 41 41 41 40 39 40 41 41 40 40 41 42
49 49 47 46 45 43 40 39 38 38 37 36 34 34 35 34 35 35 35 34 35 35 34 35 35 35 41 41 41 41 41 42 44 43 43 41 39 39 39 40 40 41 41
48 47 45 43 42 40 38 38 38 36 37 36 34 35 34 34 34 34 35 35 35 35 35 34 35 34 32 36 37 40 42 42 42 42 43 43 43 38 38 37 38 39 40
48 45 43 41 41 39 39 38 37 37 37 37 34 33 32 33 33 34 34 35 34 34 34 34 34 32 30 30 34 35 36 37 39 40 40 39 38 39 38 37 37 37 38
47 44 43 41 40 39 38 37 37 37 35 36 36 34 31 29 32 34 34 34 35 35 35 34 34 33 30 31 31 33 38 39 40 38 39 38 38 37 38 37 36 36 39
46 44 42 41 40 40 39 39 39 37 37 35 37 36 35 34 32 31 33 34 35 35 35 34 34 33 31 30 31 33 37 39 37 36 37 37 37 37 37 37 38 37 39
43 42 41 41 41 41 39 38 38 37 37 36 35 35 35 34 33 32 30 32 34 35 35 35 35 33 30 30 29 32 37 38 34 35 36 36 36 37 38 38 38 37 39
41 41 41 41 39 39 38 35 35 34 35 36 37 36 35 34 33 32 31 31 31 33 34 35 33 30 29 28 29 33 33 33 34 34 31 31 32 33 34 34 35 36 36
40 40 40 41 38 36 35 34 33 32 33 33 34 35 36 36 36 35 34 33 33 32 32 31 30 27 23 27 28 29 29 29 30 32 33 33 33 32 32 32 33 34 35
40 43 43 42 36 34 33 34 33 34 35 35 35 35 35 35 36 36 35 34 33 32 30 28 27 25 24 25 25 27 25 26 26 28 30 32 32 32 32 32 32 32 33
43 44 43 40 34 33 34 34 34 34 34 34 33 34 34 34 35 36 36 36 35 30 27 26 25 26 24 24 24 26 22 24 26 27 28 28 29 29 30 30 30 31 31
43 44 39 35 34 34 34 34 34 34 34 34 33 32 32 33 33 32 32 33 33 31 28 28 25 25 22 19 22 23 21 25 25 26 26 26 27 28 28 29 30 30 31
44 38 35 34 34 33 35 35 34 34 33 32 32 32 31 32 32 31 31 32 31 32 28 26 23 21 20 20 21 21 22 21 23 25 27 27 27 28 29 29 29 29 30
38 34 34 34 34 33 34 35 34 33 32 31 31 31 30 31 31 31 29 29 28 28 22 17 18 19 20 20 20 19 19 20 22 25 26 27 26 25 26 26 26 27 28
32 33 33 34 33 34 34 34 34 32 32 32 32 31 30 30 29 29 27 24 22 19 20 19 18 20 20 19 18 20 21 22 23 23 22 23 24 26 26 26 26 27 27
32 32 33 33 34 34 34 34 33 32 32 32 31 31 30 30 30 29 28 24 21 19 19 19 19 18 17 17 20 19 19 20 18 18 21 23 24 25 26 27 27 28 29
31 32 32 32 33 34 33 33 32 32 31 31 30 29 29 29 30 28 23 22 20 18 19 18 17 16 15 15 16 19 19 19 19 20 20 20 21 23 24 26 26 27 27
32 32 31 31 31 31 34 35 34 31 30 29 29 29 30 32 32 32 32 29 21 19 19 17 17 16 15 16 20 20 19 18 16 22 22 21 22 22 22 23 26 27 28
32 31 30 30 29 30 33 35 34 32 29 29 28 29 29 27 27 24 26 28 27 25 23 21 19 18 17 19 19 19 19 19 19 20 22 21 22 21 22 22 26 27 28
30 30 29 29 29 29 32 33 34 31 29 29 29 28 28 26 24 24 23 24 22 21 21 20 20 18 18 20 20 21 21 21 21 20 21 19 21 22 24 23 26 28 29
29 28 28 28 27 28 31 32 32 30 30 29 29 29 27 25 26 28 26 23 21 20 21 24 23 22 24 23 22 21 18 18 16 17 20 20 22 21 22 24 26 27 28
27 28 26 27 29 29 30 32 32 28 30 30 30 28 29 27 28 29 26 23 20 20 20 17 16 19 22 21 22 22 20 17 16 15 21 19 17 21 20 25 25 28 29

GFSMA_sfc_dewp_069.txt.gz
Dewpoint
60 57 56 53 51 47 45 44 43 41 41 40 40 39 38 39 40 39 42 55 55 53 49 52 50 49 48 47 47 46 47 47 47 47 47 47 46 45 45 46 46 47 48
58 56 54 51 48 45 43 42 41 38 37 38 38 39 38 36 37 43 45 49 52 52 51 49 47 46 46 45 45 45 45 44 44 45 45 45 44 44 43 44 44 45 46
57 55 51 48 45 45 46 43 41 40 37 35 38 37 36 38 36 37 39 45 45 49 50 48 46 43 42 41 43 43 43 42 41 42 43 42 42 42 42 42 43 43 44
55 52 49 48 48 46 43 42 40 39 38 36 38 36 36 36 36 36 35 36 36 36 42 47 47 46 43 42 42 42 43 43 41 42 41 41 40 41 41 41 41 42 43
54 51 49 49 48 45 45 42 41 40 38 37 35 38 38 36 37 33 35 36 37 35 34 36 41 43 44 45 44 43 43 41 43 43 43 41 41 40 40 40 41 41 42
53 51 49 49 47 44 43 42 42 41 40 40 33 36 39 37 38 38 37 34 36 38 36 36 35 34 39 40 41 44 43 43 43 45 46 45 44 42 41 39 39 39 40
52 52 48 48 46 44 43 44 42 42 41 42 38 38 37 37 38 37 38 37 36 36 37 36 34 33 31 34 35 38 40 43 44 44 45 43 45 44 41 40 40 37 38
51 50 48 46 46 43 44 44 43 41 41 41 39 37 32 32 35 36 37 37 39 37 35 36 37 35 34 30 32 35 37 38 39 39 39 40 41 40 40 41 38 38 37
49 48 47 46 45 44 42 44 43 42 39 41 41 36 29 25 31 36 38 37 39 37 37 36 37 35 35 32 32 31 35 37 36 37 37 37 39 39 39 41 41 41 39
49 47 46 46 45 44 44 44 43 42 41 38 40 38 40 37 26 25 35 36 37 37 38 37 35 36 37 33 31 31 36 38 36 35 36 36 37 37 39 39 38 40 41
48 46 46 46 45 44 45 44 44 43 41 36 34 35 37 36 38 34 28 30 34 35 36 35 35 35 35 32 30 32 34 34 35 35 35 35 35 36 37 37 39 40 38
46 46 43 45 44 43 42 42 41 40 38 38 37 37 34 32 31 34 33 30 30 33 35 35 34 33 33 30 26 30 31 31 31 32 34 35 36 35 35 35 36 37 36
44 44 44 43 42 41 41 39 38 38 38 36 37 36 38 37 36 33 33 31 31 30 33 34 33 32 26 29 27 28 27 28 27 28 30 32 34 35 36 35 35 35 35
44 44 44 44 42 42 39 37 37 37 38 40 40 40 38 35 35 33 32 33 32 28 28 32 31 30 27 28 27 26 25 25 25 26 28 29 30 31 32 33 34 34 34
43 45 47 44 44 39 37 38 36 37 39 40 40 40 36 34 34 33 33 34 33 28 22 25 28 30 29 30 27 26 25 24 25 26 26 27 28 29 29 30 31 31 32
44 47 45 44 40 37 37 38 37 37 38 39 36 36 35 34 33 33 32 32 32 30 26 25 27 29 29 22 22 25 23 24 23 25 26 27 28 29 29 29 29 30 31
45 46 45 41 36 36 36 37 37 37 37 37 36 35 35 34 32 32 32 32 31 32 28 27 28 27 25 23 22 23 21 18 19 23 25 27 28 28 28 29 28 29 29
47 43 40 36 35 34 35 36 36 35 36 36 35 35 34 30 33 33 32 32 31 31 32 28 26 22 22 23 23 22 16 14 19 20 25 25 25 25 26 26 26 27 27
42 38 36 35 34 35 35 36 36 36 36 35 35 35 34 33 32 31 31 30 30 28 28 27 24 21 21 21 20 19 16 19 17 21 21 22 23 25 26 26 27 28 28
35 34 34 35 36 35 34 35 35 36 36 35 35 35 34 33 32 31 31 31 29 27 29 26 21 20 20 20 19 16 14 16 15 14 18 21 23 24 25 26 26 27 28
33 32 33 34 35 34 32 34 34 35 35 35 35 34 34 34 34 32 29 29 29 27 26 22 20 19 19 18 17 14 16 15 17 17 17 17 17 18 20 22 23 25 26
32 33 33 34 33 29 32 35 34 33 33 33 33 33 32 33 33 34 34 34 32 27 24 22 20 20 19 18 19 17 17 16 16 19 19 17 18 17 18 19 22 25 27
34 33 34 33 32 33 33 34 34 32 32 32 32 32 30 29 32 30 30 29 30 28 26 25 25 23 24 22 16 16 16 16 15 16 17 18 19 19 20 18 24 25 27
32 32 33 33 33 30 32 32 33 32 32 33 33 32 31 30 30 30 26 25 24 25 25 22 23 22 22 19 17 18 21 21 20 17 17 20 20 20 21 22 24 26 28
32 32 31 31 31 30 31 32 32 31 31 31 31 32 31 30 30 30 27 27 26 24 24 25 25 25 25 22 24 23 22 21 20 18 19 20 20 18 20 23 25 25 26
30 30 29 31 31 30 32 32 32 33 35 31 31 30 31 31 30 29 30 31 29 26 23 21 21 21 21 21 24 23 22 21 18 17 18 18 15 18 19 22 25 26 28

GFSMA_sfc_dewp_072.txt.gz
Dewpoint
62 60 58 54 53 52 51 50 48 45 43 41 39 37 37 38 37 35 42 54 55 53 50 53 50 49 48 48 46 46 46 45 45 46 47 46 45 44 45 45 46 46 47
62 58 57 55 52 51 49 47 43 39 38 38 38 38 37 35 36 39 38 45 51 52 51 50 48 47 45 45 44 45 45 44 43 44 44 43 43 43 43 43 44 44 45
61 60 56 53 50 49 49 44 42 40 36 34 36 36 35 37 35 35 33 39 43 50 49 50 48 45 44 43 43 44 44 45 43 42 43 42 41 41 41 42 42 43 43
60 57 54 52 50 47 44 43 40 37 38 37 38 35 36 37 37 35 33 33 33 29 44 44 46 47 47 46 44 44 44 43 45 43 43 43 42 41 40 40 40 41 42
58 55 53 52 50 46 46 41 41 42 40 39 35 38 39 37 38 31 36 37 37 32 29 39 36 37 40 42 44 45 44 44 43 46 45 45 44 43 41 41 40 39 39
57 55 52 52 48 46 44 42 43 42 42 40 33 35 40 37 36 36 35 31 35 35 33 35 34 32 37 37 39 41 42 43 44 46 46 47 48 48 46 44 41 39 38
55 55 51 50 48 46 44 46 45 44 43 44 40 40 39 39 39 36 36 34 34 34 36 35 34 30 30 34 37 36 40 41 42 42 43 42 42 42 43 46 42 42 40
54 52 51 49 48 46 46 46 45 44 44 44 40 38 34 33 36 35 35 34 37 35 33 34 36 35 34 31 34 35 35 38 39 39 39 39 40 40 42 42 43 43 44
52 50 51 49 49 45 44 46 45 45 43 43 42 36 28 25 26 31 35 35 37 36 35 35 35 35 34 34 35 35 35 37 37 36 37 37 38 38 39 40 40 43 43
51 50 49 50 49 45 46 45 45 45 44 40 40 36 37 34 24 22 27 31 34 35 37 35 34 34 34 34 35 33 36 36 36 36 37 37 37 38 38 38 40 40 42
51 49 49 49 48 45 46 47 46 45 42 38 32 31 32 32 33 31 30 29 29 29 30 32 34 34 33 34 33 35 33 32 32 34 35 36 37 38 37 37 37 37 38
51 50 48 49 48 46 46 46 46 45 41 36 33 32 30 28 28 29 28 27 26 26 27 31 33 32 32 32 29 29 28 29 30 30 31 33 35 36 37 38 39 39 39
49 50 49 48 46 46 45 44 43 40 38 36 35 31 33 33 32 31 30 28 25 25 27 30 31 31 28 30 30 28 29 27 27 28 28 29 31 32 33 35 37 38 37
49 50 49 47 46 43 44 43 41 38 39 38 38 36 33 33 32 31 29 28 28 26 25 27 28 30 29 28 31 27 30 29 26 27 28 28 29 30 30 31 32 33 34
49 49 48 47 46 45 45 40 38 39 38 39 39 39 36 33 34 33 31 29 28 27 22 23 23 28 29 29 31 31 29 31 27 27 26 27 28 29 30 31 31 32 32
48 48 48 47 45 44 40 39 38 38 37 37 36 37 36 34 34 33 31 30 28 27 25 24 23 26 28 26 29 27 26 28 28 27 24 26 28 29 30 30 30 30 31
47 47 47 47 48 41 38 39 38 36 36 36 36 36 35 35 34 33 32 30 29 28 25 25 24 26 29 29 26 27 26 24 22 27 24 25 27 27 27 27 28 29 29
48 49 48 45 39 36 37 36 35 33 35 35 35 35 35 31 34 34 31 31 29 28 26 26 28 26 29 28 26 26 21 17 18 22 25 24 26 25 26 26 27 27 28
48 45 42 38 36 35 34 35 34 34 35 35 35 34 34 34 33 32 31 29 28 24 26 26 26 26 26 26 23 24 22 21 15 22 25 25 24 22 25 26 26 27 27
41 39 39 36 35 34 33 34 32 33 33 32 34 34 34 33 33 32 29 29 27 26 27 27 26 28 25 24 23 19 18 17 15 12 20 24 23 23 25 26 25 26 26
39 39 35 33 35 34 30 32 30 31 31 31 32 32 34 34 36 34 28 28 28 26 27 27 29 26 21 19 19 18 17 16 17 19 18 18 19 19 20 23 23 25 25
36 33 35 37 35 28 33 34 33 30 29 28 30 30 30 33 33 34 34 33 32 28 29 30 27 25 22 20 22 20 19 17 17 20 19 19 18 18 19 19 26 24 25
37 39 36 34 32 32 34 34 34 29 28 28 28 28 26 23 30 30 31 33 33 33 32 31 29 26 26 26 24 20 17 16 16 18 19 19 21 20 21 16 27 25 25
36 34 33 32 32 28 32 33 33 30 29 28 29 29 30 30 30 30 29 28 27 26 28 26 26 24 23 24 22 20 20 21 21 19 20 22 21 21 22 21 25 25 26
32 30 29 30 30 30 32 33 32 31 30 30 29 30 29 30 30 33 31 30 28 26 27 29 29 29 26 25 25 24 23 23 23 20 20 20 21 19 19 22 25 26 26
28 28 28 30 31 32 32 34 33 34 34 34 32 32 31 30 30 31 33 33 32 27 26 27 25 25 27 26 26 24 23 23 21 20 19 19 16 16 20 21 23 23 26

GFSMA_sfc_dewp_075.txt.gz
Dewpoint
63 61 60 56 54 54 53 53 52 49 45 42 40 38 36 38 38 36 47 54 55 54 51 53 51 50 48 48 46 46 46 45 44 45 45 45 44 44 44 44 45 45 45
64 63 58 55 54 54 53 52 49 43 40 40 40 38 37 36 37 38 37 47 54 53 52 51 48 47 46 45 44 44 45 45 44 43 43 43 42 43 43 43 43 43 43
62 61 58 57 54 53 53 49 44 42 38 37 38 37 36 37 35 35 34 37 46 52 51 50 50 49 47 45 44 44 45 44 46 44 43 44 43 42 42 41 41 41 41
62 61 57 55 53 52 48 44 42 40 40 40 41 38 37 36 36 35 34 34 33 29 47 46 42 40 41 44 46 47 46 45 45 46 46 46 45 44 43 42 41 40 41
61 58 56 54 54 49 47 44 43 44 42 41 38 39 41 37 37 30 35 35 37 36 32 42 39 39 38 36 37 41 42 43 44 45 46 48 48 49 48 45 44 43 41
59 57 55 55 52 47 46 44 46 44 44 43 38 39 43 41 38 37 36 33 34 37 36 36 36 36 41 37 35 37 39 42 43 44 45 46 45 44 44 45 47 46 43
59 58 54 54 51 48 46 48 47 47 45 46 43 42 41 42 41 38 37 36 35 35 36 36 36 33 32 39 40 35 37 39 42 42 42 42 42 42 42 42 44 46 44
57 57 55 52 50 47 48 49 48 45 46 46 43 41 37 37 38 38 37 36 38 36 36 35 35 36 35 34 36 35 35 36 38 40 39 39 39 40 40 40 41 42 44
57 55 54 52 50 49 47 49 48 47 45 45 45 42 35 32 32 32 34 35 38 37 38 36 36 35 35 34 37 39 37 37 37 37 38 38 38 39 39 40 40 40 41
55 53 52 51 51 48 48 48 47 48 47 43 46 39 40 38 33 31 32 32 33 35 37 36 35 35 35 33 38 39 37 35 34 35 36 37 38 38 39 40 39 39 39
54 52 51 51 51 48 49 49 49 48 45 44 41 36 36 33 34 32 30 32 32 29 28 28 32 33 34 34 34 36 35 32 31 32 33 35 36 37 38 39 39 39 39
52 53 50 51 51 50 49 48 49 47 44 43 38 36 32 30 30 30 30 31 28 27 27 27 30 32 33 33 32 34 33 30 29 30 31 33 33 34 35 36 37 39 39
52 52 51 52 50 49 48 48 46 45 44 43 39 36 32 33 34 33 31 29 27 26 26 30 29 30 29 32 32 32 33 33 32 30 30 31 31 32 32 33 34 35 36
54 53 53 52 50 48 47 46 45 44 45 45 40 38 35 34 34 32 30 29 29 26 26 28 27 28 30 31 32 34 31 37 35 29 29 30 29 30 30 31 32 33 34
52 53 53 51 49 47 47 45 43 44 41 41 41 40 38 36 35 33 32 31 30 28 25 26 25 29 29 30 32 31 32 36 32 31 31 28 27 29 30 31 31 32 33
55 53 52 49 48 46 46 45 43 40 40 40 37 38 37 36 34 33 32 31 30 29 28 26 26 30 30 23 30 30 30 35 33 33 33 30 26 27 29 30 30 30 31
51 50 48 47 47 48 48 43 40 40 37 38 38 37 37 36 34 33 32 31 30 30 28 29 27 30 31 32 29 31 30 28 29 33 34 28 26 26 27 28 28 28 29
50 48 48 48 50 47 43 41 40 37 36 35 36 37 35 30 34 34 34 33 32 31 29 29 29 28 30 31 31 33 26 23 26 26 31 27 26 27 26 26 26 27 28
49 49 48 46 44 43 40 37 36 36 36 36 35 34 33 33 34 34 34 32 32 26 30 28 28 29 28 28 28 29 28 28 22 27 30 29 29 28 26 25 26 27 27
46 45 46 45 44 39 35 34 35 35 34 32 32 32 32 32 32 34 32 34 30 30 29 27 26 25 26 28 29 29 28 27 22 16 22 25 28 28 29 29 29 28 28
44 43 42 42 39 33 33 36 33 31 29 29 30 28 31 32 36 35 31 33 33 30 28 27 25 26 28 29 28 28 27 26 25 21 19 22 21 20 22 27 29 31 28
40 41 40 35 36 35 34 33 31 29 27 27 26 27 26 31 30 34 34 33 32 31 30 30 28 28 28 30 29 27 26 24 22 24 21 23 21 20 21 22 28 26 25
37 38 36 39 37 34 35 34 34 29 27 26 26 27 25 22 30 28 31 33 32 33 31 32 30 29 30 29 27 24 23 23 21 19 22 22 24 24 23 17 28 29 28
39 39 37 34 33 30 35 34 34 30 29 29 30 30 31 32 32 32 31 32 31 31 32 31 31 29 28 28 27 26 26 23 22 21 22 25 26 24 25 25 26 29 29
36 35 32 29 29 30 33 33 32 32 32 32 31 30 30 31 31 33 33 33 32 33 31 31 31 32 30 28 25 27 27 26 26 23 24 23 24 21 22 23 26 27 27
29 27 26 29 31 31 34 33 30 31 30 30 27 25 28 27 29 32 33 33 34 31 30 32 29 30 29 27 28 26 26 26 23 22 22 23 22 19 20 23 23 26 27

GFSMA_sfc_dewp_078.txt.gz
Dewpoint
60 60 59 57 55 56 56 55 54 52 47 44 42 40 40 40 40 47 50 56 56 55 55 53 52 51 49 48 46 46 46 46 45 44 44 44 43 44 44 44 44 44 44
62 62 60 59 56 56 56 56 53 48 46 44 42 40 39 39 38 39 47 53 55 55 53 51 49 48 46 45 45 44 44 45 45 44 43 44 43 43 43 42 42 42 42
62 61 59 58 56 58 56 52 47 45 43 40 41 40 41 38 39 36 40 47 52 54 54 52 51 50 49 48 47 47 47 45 46 45 45 45 45 45 44 43 42 42 42
62 61 59 58 58 55 52 49 47 45 45 44 42 41 39 38 37 35 36 38 41 44 52 51 48 44 42 41 40 42 44 45 44 45 45 47 49 48 49 48 45 44 43
62 62 60 59 56 54 52 48 47 47 45 43 42 42 42 41 38 34 35 36 38 38 40 48 46 44 40 37 34 35 38 40 42 43 44 46 46 46 45 45 46 49 48
62 61 60 57 56 52 51 49 47 46 47 46 42 43 44 43 41 38 38 36 37 38 36 38 40 41 45 38 38 35 36 38 41 43 44 44 44 44 44 44 44 45 47
61 60 58 56 56 52 49 50 49 47 46 47 45 46 47 45 42 40 41 39 38 36 38 36 38 37 38 41 41 37 38 37 38 39 41 41 41 41 41 42 42 42 43
61 59 58 56 55 52 51 50 49 49 48 48 45 44 41 42 42 42 41 40 39 37 37 38 37 36 36 36 39 37 39 36 36 38 39 40 40 40 40 40 41 41 41
59 59 58 56 54 52 51 51 49 48 47 48 45 43 39 36 37 39 42 39 37 38 39 39 38 38 37 37 40 41 40 37 35 35 37 38 39 39 40 40 40 40 41
58 58 57 55 53 53 51 51 51 50 47 46 47 45 43 39 36 34 36 36 40 38 39 40 38 37 36 37 40 42 40 37 34 33 35 36 37 38 38 38 39 39 39
57 58 56 55 54 53 53 51 51 48 48 45 42 39 40 40 40 36 31 33 35 35 33 33 35 36 35 36 36 39 38 36 34 31 31 33 36 37 38 38 38 38 38
56 56 55 54 54 53 52 51 50 49 45 42 43 41 38 35 33 33 33 33 32 31 32 32 33 35 37 36 38 40 38 35 33 32 32 33 34 35 36 36 36 36 37
55 54 54 53 53 52 51 50 48 46 44 43 42 41 39 36 36 36 35 33 31 31 31 32 33 33 33 36 37 38 37 37 36 35 32 31 32 33 33 33 34 35 35
54 53 54 53 53 51 49 48 47 46 44 44 41 40 39 39 38 36 34 33 31 31 30 30 32 33 33 35 38 40 36 39 38 36 33 32 32 31 29 30 32 33 34
55 55 54 53 52 48 47 47 44 43 45 45 45 42 41 40 40 38 36 34 32 30 29 30 29 30 32 32 36 35 33 38 39 36 34 33 33 30 28 28 30 32 33
56 54 53 50 48 48 46 45 45 45 46 45 42 41 40 40 39 38 35 35 35 33 29 30 29 30 31 28 32 34 33 37 38 36 36 36 35 30 28 28 29 29 31
52 49 49 48 47 47 47 46 47 46 43 42 41 40 39 40 38 37 37 36 35 33 30 30 30 30 30 31 30 32 35 32 33 36 37 36 36 32 29 28 28 28 29
49 49 49 48 48 49 50 47 44 42 41 40 40 39 39 36 36 37 37 35 34 33 32 29 29 30 30 30 31 31 32 31 29 31 35 35 34 32 32 31 29 29 28
49 49 48 48 48 47 46 45 43 42 40 40 38 37 36 35 35 35 35 35 34 32 32 30 28 29 29 29 27 27 31 33 30 33 34 34 33 33 33 32 31 31 31
48 48 47 47 46 46 45 43 40 39 37 35 36 35 34 34 34 34 33 33 32 32 31 29 28 27 27 27 27 27 28 30 30 26 28 27 31 32 34 33 32 32 32
46 46 46 46 45 43 41 39 37 34 31 30 32 32 32 35 36 34 29 30 31 30 30 29 28 27 26 26 26 28 30 29 29 28 26 22 22 24 25 29 30 32 32
44 44 44 44 42 39 34 34 33 30 30 30 30 29 30 32 30 33 34 34 32 29 29 30 30 30 28 27 28 29 33 31 25 27 25 22 23 22 22 24 28 28 29
41 41 41 41 40 39 36 35 32 31 30 30 30 30 28 26 32 31 32 32 32 33 31 31 30 30 30 29 28 27 27 25 24 24 21 21 23 22 24 22 29 30 30
38 39 41 39 36 34 36 35 34 31 31 31 32 32 32 31 31 31 29 29 30 31 32 32 31 31 32 31 28 26 27 26 25 24 21 20 22 23 26 26 29 29 30
41 38 37 35 32 33 34 33 32 33 33 31 30 29 28 27 29 30 26 27 27 28 31 34 34 35 35 33 29 27 24 24 22 23 24 23 23 23 23 22 24 28 29
38 34 31 36 33 32 32 31 28 31 28 27 27 27 28 28 29 30 27 27 27 27 28 32 31 33 35 33 30 26 26 24 23 21 23 22 22 24 21 22 23 24 25

GFSMA_sfc_dewp_081.txt.gz
Dewpoint
58 58 56 56 55 54 54 53 52 48 43 41 40 39 38 38 47 48 52 57 57 59 56 54 53 51 50 48 47 47 46 45 45 44 44 44 43 43 43 43 43 43 43
60 60 56 56 56 55 54 53 52 45 43 40 38 38 38 37 43 47 50 53 56 57 55 51 51 49 47 46 46 43 45 46 45 45 43 44 45 44 43 43 43 42 43
60 60 58 56 55 55 54 53 49 45 43 41 38 39 38 37 36 40 47 50 52 55 55 52 52 51 49 48 47 47 47 47 47 46 46 46 49 49 47 47 46 43 44
60 59 58 56 56 54 50 46 44 42 40 40 40 39 39 37 35 34 42 46 46 49 53 54 50 47 45 42 37 37 39 40 42 42 44 45 47 47 46 45 46 48 48
61 60 59 58 55 52 49 46 46 43 43 43 41 41 39 39 36 35 35 37 38 45 45 51 49 48 42 37 34 35 38 39 40 42 44 44 46 45 45 44 43 44 46
60 61 60 57 56 52 49 47 44 46 43 44 42 41 41 41 39 37 36 35 37 38 40 40 40 41 46 40 38 37 36 37 38 39 41 42 43 42 42 42 42 43 43
60 60 57 57 53 50 48 47 46 44 44 45 43 44 45 44 40 39 39 38 37 37 37 38 38 38 43 45 42 40 39 39 39 38 39 40 40 40 41 41 41 41 41
60 60 56 55 54 50 48 47 46 46 47 45 44 42 40 41 42 41 40 39 38 37 36 37 37 36 36 39 40 40 40 38 37 37 36 38 38 39 39 39 39 40 40
60 60 56 55 54 51 48 47 47 47 45 46 44 42 38 36 36 38 41 40 38 38 37 37 38 37 37 36 41 44 45 42 39 36 36 36 36 36 38 39 39 39 39
58 58 58 55 53 51 48 49 49 48 46 45 45 44 41 39 35 33 35 35 36 38 38 39 38 38 38 37 40 42 44 42 39 38 37 35 34 34 36 38 38 38 38
57 57 57 55 52 50 49 50 49 48 47 44 41 39 39 40 38 34 33 32 35 35 35 36 37 36 36 36 39 42 43 41 40 39 37 35 33 34 35 36 37 37 38
56 56 57 55 52 51 50 50 49 46 44 43 41 41 38 35 33 32 33 32 32 32 32 31 31 31 34 36 39 42 43 41 40 38 36 35 34 34 34 35 35 35 35
55 56 56 54 53 52 51 50 49 46 43 41 41 40 40 37 36 35 34 34 32 32 30 32 31 32 32 34 36 42 43 41 39 37 37 36 35 34 34 34 32 32 33
55 55 54 53 53 51 50 49 47 45 44 43 41 41 40 40 39 37 35 34 30 31 30 29 31 32 32 32 35 43 39 40 39 39 38 36 36 35 34 32 31 31 31
55 54 54 53 51 49 49 48 47 45 45 45 43 44 44 42 41 39 37 34 33 29 29 30 30 31 31 31 34 39 35 39 40 40 39 38 36 35 34 33 30 29 30
55 55 53 50 48 48 47 47 46 46 45 45 46 46 42 41 40 40 37 36 34 32 30 31 31 31 30 29 33 36 32 37 40 40 39 38 37 36 35 32 30 29 29
55 53 49 48 47 48 48 47 46 46 46 46 45 44 41 39 39 38 37 36 34 34 32 32 31 31 29 30 30 32 34 34 36 40 38 38 38 38 37 35 31 30 29
50 49 48 48 49 48 48 47 47 47 46 44 42 41 39 38 38 38 37 35 34 34 33 31 31 30 30 31 31 30 31 31 31 34 38 38 37 37 36 34 33 33 31
50 50 49 48 48 48 49 48 46 45 44 42 40 38 38 36 34 34 34 34 35 34 33 31 30 30 29 29 27 27 28 30 32 35 36 36 37 37 36 34 34 34 33
49 49 49 48 48 48 47 46 45 43 42 40 38 35 33 32 32 32 32 32 32 32 31 30 29 28 27 28 27 26 27 28 29 29 31 30 32 35 36 35 35 35 34
49 48 47 47 47 46 45 44 43 38 31 29 31 30 29 32 36 34 30 29 29 29 29 29 29 27 27 26 25 27 27 28 29 31 31 30 24 23 24 26 29 34 34
47 46 47 47 45 43 39 37 34 30 29 28 27 28 29 31 30 32 34 33 32 29 28 27 29 29 29 28 28 28 27 29 25 30 28 23 23 21 22 23 27 30 32
45 45 45 44 43 41 35 34 33 30 28 28 27 28 29 30 33 31 31 30 30 32 30 29 29 30 30 29 30 31 29 28 27 26 21 20 22 21 23 21 29 31 31
42 42 41 41 40 33 35 34 32 30 30 31 32 30 29 28 28 29 27 25 26 27 29 29 29 31 31 32 33 32 30 28 26 24 22 19 21 21 23 25 29 30 31
39 39 40 37 33 33 33 33 32 31 29 28 29 29 28 27 29 31 28 27 27 27 29 31 32 32 34 34 35 34 30 27 20 23 24 23 23 22 23 23 25 27 29
39 35 33 33 32 29 31 30 29 28 27 27 27 27 28 28 30 31 28 27 25 25 26 27 28 29 30 30 33 33 31 28 24 20 24 23 21 22 19 22 22 23 22

GFSMA_sfc_dewp_087.txt.gz
Dewpoint
60 59 56 54 54 53 52 48 44 42 41 39 41 43 44 45 47 50 53 59 59 57 54 54 53 52 50 49 48 47 48 47 46 46 46 46 46 46 46 46 46 45 45
59 57 54 52 53 52 52 47 43 41 39 39 39 43 44 44 45 49 53 57 58 58 56 53 53 52 50 48 47 48 46 47 47 46 45 46 50 49 49 48 46 46 48
58 55 53 52 52 53 52 47 43 41 39 38 38 40 44 44 44 47 51 53 54 55 54 54 51 49 47 48 47 38 39 41 42 41 44 49 48 48 45 44 44 44 44
56 56 55 53 54 53 52 48 45 42 41 39 38 38 38 42 43 45 48 50 50 51 55 55 52 47 46 45 38 38 40 40 41 43 44 44 45 45 44 43 43 43 43
57 56 56 55 55 53 52 48 44 43 40 39 38 38 38 36 39 44 46 47 46 49 49 55 52 50 47 42 39 38 40 41 41 40 40 41 41 41 41 41 41 41 41
59 57 56 55 54 52 50 46 43 43 41 40 38 38 38 38 36 41 44 44 43 45 45 47 47 46 49 44 41 40 40 39 38 39 40 39 38 36 36 37 37 38 39
59 57 56 55 53 51 49 45 44 43 43 43 42 42 43 42 39 38 38 38 38 41 41 42 42 38 42 48 44 43 43 42 42 40 40 39 38 36 34 34 35 37 37
58 58 57 56 52 50 47 45 44 44 44 44 42 41 39 41 42 40 38 37 36 38 39 39 38 36 37 42 44 46 45 45 44 43 41 41 39 38 36 34 35 36 37
57 59 58 57 55 52 48 46 45 44 44 45 44 42 38 37 37 37 39 40 39 38 38 37 37 37 37 38 43 47 50 49 44 44 43 42 42 40 37 36 36 36 36
57 58 58 57 54 52 49 47 46 45 45 43 44 43 40 39 35 34 35 35 38 39 38 38 38 38 37 37 39 42 45 48 47 45 44 43 43 42 39 37 37 36 37
58 58 58 56 55 52 50 49 47 46 46 45 44 44 41 39 36 34 32 33 34 35 35 38 38 37 35 38 37 39 45 46 46 47 44 43 44 43 41 39 39 38 38
57 57 58 56 55 54 51 50 50 50 48 47 44 43 41 39 38 36 34 34 32 33 33 32 30 30 31 32 35 41 43 44 45 46 45 43 44 43 42 41 40 40 39
55 56 56 56 55 54 52 52 51 49 48 46 44 43 43 42 40 40 38 35 32 34 33 34 33 32 31 33 33 40 43 44 44 45 45 44 44 43 42 41 41 40 39
55 56 56 57 55 53 52 50 50 48 48 47 46 46 45 45 44 43 39 36 33 32 32 31 32 33 33 33 34 39 38 43 44 44 44 45 44 44 43 41 40 39 39
57 56 57 56 54 53 52 50 48 48 47 48 47 46 46 46 45 43 41 38 36 32 30 31 31 32 33 34 34 34 34 40 43 44 43 43 44 43 43 40 39 39 39
57 56 55 55 53 51 50 49 49 48 48 47 47 46 46 46 45 45 42 40 37 35 31 32 32 32 32 32 33 35 33 38 41 42 43 42 42 42 42 41 40 39 40
56 55 55 55 52 51 50 49 48 48 47 47 47 46 45 45 44 43 42 40 37 35 32 32 33 32 31 31 32 32 33 33 34 39 40 41 41 41 41 40 39 40 40
56 55 54 53 52 51 50 49 48 47 48 46 46 45 44 45 43 43 41 39 37 35 33 31 32 32 31 32 32 31 31 30 32 35 39 39 41 40 40 39 39 39 39
55 54 54 53 51 51 50 49 48 48 47 46 45 45 45 44 42 40 38 37 35 34 33 31 30 30 30 30 28 28 28 28 28 33 36 39 40 41 40 39 39 39 38
56 55 53 52 51 50 50 48 48 47 47 46 46 45 44 42 41 37 33 32 31 30 29 28 27 27 28 28 28 27 27 27 27 27 30 32 34 36 37 37 38 38 36
56 53 52 51 51 49 49 48 47 47 46 45 43 41 40 38 36 32 29 27 28 27 27 26 25 25 25 26 26 27 27 28 28 28 28 29 30 31 31 34 35 36 36
52 52 51 50 49 49 43 43 45 45 44 41 37 33 32 35 34 33 33 32 28 25 24 24 24 25 24 25 26 26 26 26 24 28 27 29 30 30 29 26 30 33 32
50 49 49 49 48 48 44 42 39 40 37 35 33 31 29 28 30 28 29 28 28 29 28 26 25 25 24 25 26 26 25 26 27 26 29 28 26 26 26 23 28 31 32
48 47 47 47 45 44 40 38 36 35 34 32 31 30 28 27 30 30 28 27 27 28 28 27 27 26 26 27 28 28 28 29 29 28 31 27 26 25 24 24 27 28 30
45 45 45 43 41 38 35 35 33 32 29 28 28 28 27 27 27 27 26 25 25 25 26 28 29 30 31 32 32 31 28 28 25 25 27 28 26 24 23 23 24 28 29
42 40 37 36 35 34 34 33 32 30 28 26 25 25 26 25 26 25 25 26 25 25 28 28 28 28 29 30 31 31 30 26 26 25 25 25 25 26 25 23 24 24 25

GFSMA_sfc_dewp_090.txt.gz
Dewpoint
60 59 57 55 53 52 49 44 42 42 42 43 42 43 45 48 50 52 55 58 57 56 55 54 53 51 50 49 48 49 49 47 48 47 47 49 48 49 50 49 47 46 48
60 57 54 53 53 52 47 43 41 41 41 42 43 44 44 45 49 53 56 57 58 57 56 54 53 52 50 48 48 47 48 48 47 46 46 50 49 47 46 45 45 44 44
59 56 53 52 52 53 48 43 42 41 40 40 43 44 44 44 47 52 55 55 56 57 57 56 53 50 50 49 46 40 41 43 43 43 49 48 48 47 46 45 43 43 43
58 55 54 52 53 52 47 44 42 41 40 40 40 42 44 44 45 48 52 52 51 51 54 55 54 49 48 48 41 41 42 42 43 45 45 45 45 44 43 42 41 41 41
57 55 55 53 54 53 48 44 44 42 40 39 38 39 41 42 44 45 48 49 49 50 51 55 53 52 49 44 41 41 42 43 43 42 42 41 41 40 39 38 37 38 39
57 56 55 54 54 52 50 46 43 43 41 40 37 38 39 38 39 45 45 46 45 48 48 50 50 48 50 46 42 41 42 42 41 42 41 41 39 38 36 35 35 35 36
57 56 55 55 53 52 50 46 44 43 43 43 41 41 42 41 39 38 43 44 43 43 45 45 45 43 46 51 45 43 45 44 42 42 42 41 40 39 37 36 35 34 34
58 57 55 54 53 52 50 47 45 44 44 44 41 41 39 41 43 41 39 40 41 39 42 42 42 41 39 42 46 47 46 46 46 45 43 43 42 40 39 38 37 36 35
58 58 56 55 54 52 50 47 46 45 43 44 44 42 39 38 39 40 41 39 39 39 39 40 40 39 38 39 43 47 50 51 46 43 43 44 44 43 42 40 39 38 37
56 58 58 56 55 53 50 49 48 48 46 43 44 44 41 41 38 36 37 38 41 40 40 40 39 39 39 39 41 43 45 47 49 48 45 43 42 44 44 42 41 40 39
56 56 57 56 55 54 53 50 49 47 48 46 44 44 42 40 38 36 34 35 36 36 39 39 39 40 40 40 39 40 44 45 46 47 47 45 42 42 44 44 43 42 41
55 56 57 57 57 55 53 52 51 49 48 48 46 45 43 41 39 37 36 35 34 36 35 34 37 37 36 37 37 41 43 44 45 46 46 45 44 43 43 43 43 42 42
53 54 55 55 55 55 54 52 51 51 50 48 48 46 44 43 43 43 42 40 41 39 35 36 35 33 32 35 35 41 43 43 44 45 46 45 44 44 44 42 41 41 41
53 54 55 56 56 55 54 53 52 52 50 50 47 46 45 45 44 44 43 40 36 35 34 34 34 35 34 34 35 39 39 42 44 44 45 46 46 46 46 45 43 41 41
55 54 55 55 55 55 54 53 52 51 50 49 48 47 46 45 45 45 43 40 39 35 32 33 32 34 35 35 36 37 37 38 41 43 44 45 45 46 46 46 45 43 41
55 55 55 55 55 53 52 52 51 50 49 49 48 47 47 46 46 45 43 39 39 38 36 35 34 34 34 32 35 38 36 38 40 41 41 43 44 44 44 44 44 43 42
55 55 55 55 54 52 52 51 50 50 50 49 48 48 47 47 46 45 43 42 38 38 36 35 34 34 34 34 34 35 35 35 35 39 40 41 42 42 42 42 42 42 42
55 55 55 55 55 53 52 52 51 51 49 48 48 48 47 46 45 44 43 41 40 38 35 34 34 33 33 34 34 33 32 30 33 34 37 39 40 41 41 41 40 40 40
56 55 56 56 55 54 53 53 53 52 50 49 48 48 47 45 44 44 43 41 39 37 36 34 33 32 32 32 30 30 30 31 28 32 35 36 37 39 40 41 40 40 39
56 56 55 55 54 53 53 52 51 50 50 50 49 47 46 45 44 43 41 39 37 35 32 30 29 29 29 30 29 29 28 29 28 28 31 32 34 34 36 37 38 39 39
57 56 56 55 53 52 52 51 50 49 48 47 46 45 44 43 41 40 37 35 33 29 28 28 27 27 27 27 27 28 27 27 28 30 29 30 30 31 32 33 34 36 36
56 56 53 52 51 52 46 44 47 48 47 45 41 39 38 38 36 35 34 32 31 29 27 26 26 25 25 26 27 27 26 26 25 28 28 28 30 29 30 31 32 33 35
52 52 52 51 51 51 43 43 42 46 44 40 36 35 34 33 32 30 30 29 28 29 27 27 26 25 25 26 26 26 26 26 25 26 28 26 28 28 29 28 31 32 33
49 48 47 46 45 42 39 38 38 39 37 36 36 34 31 29 30 29 28 27 27 26 26 26 27 26 27 28 28 28 28 29 28 27 30 27 27 26 28 28 30 31 32
45 44 43 41 39 37 36 36 35 34 32 31 30 29 28 28 29 29 26 25 24 25 27 28 29 30 30 31 31 31 28 29 26 25 27 27 27 26 27 27 27 29 31
40 38 36 36 35 34 34 34 32 30 27 27 28 28 29 28 27 25 25 25 25 25 25 25 24 24 25 27 27 29 30 28 26 25 26 26 25 25 25 26 26 26 28

GFSMA_sfc_dewp_093.txt.gz
Dewpoint
61 59 58 54 52 54 55 54 54 51 51 50 50 52 55 56 56 54 53 58 58 56 55 54 53 53 51 50 50 50 48 49 49 48 50 49 50 50 47 46 46 45 46
60 58 57 54 52 51 52 51 50 48 45 44 44 45 47 52 55 56 54 54 57 58 56 54 53 52 51 50 49 48 49 48 49 47 51 50 48 47 47 45 45 44 44
60 58 56 54 51 50 50 48 47 45 44 42 44 45 45 49 52 57 55 54 54 57 57 57 54 52 51 51 47 45 47 46 45 49 50 50 48 47 46 44 43 42 42
59 58 56 54 54 50 48 46 44 44 44 43 45 44 44 46 52 56 56 55 54 52 56 57 56 52 52 51 44 45 45 45 46 47 48 47 46 45 43 41 40 39 40
59 56 56 55 55 50 48 45 45 44 43 43 43 45 45 44 47 52 56 55 55 52 49 55 54 53 52 48 45 45 45 45 47 46 45 44 43 42 40 38 37 37 37
59 57 57 56 54 50 48 46 46 45 43 42 36 41 43 43 45 47 50 52 51 50 50 48 47 45 52 48 45 45 46 47 45 45 44 43 42 41 39 38 36 35 35
58 58 56 57 55 52 50 49 47 47 44 44 41 41 42 42 43 43 46 46 46 47 47 47 46 42 43 52 48 45 46 47 45 45 45 43 42 41 39 38 37 36 36
58 57 56 56 55 54 52 50 48 48 47 47 41 41 39 41 42 42 41 45 47 44 44 45 46 45 42 41 45 48 47 47 47 46 47 45 44 42 41 40 39 39 38
57 57 57 56 57 55 54 52 50 48 47 46 47 44 42 39 42 44 45 41 44 45 43 43 44 44 43 41 44 47 51 52 48 47 46 46 46 45 44 43 42 41 40
59 58 57 56 56 56 55 54 53 52 50 45 45 45 46 45 41 41 42 44 43 42 44 42 41 43 43 42 44 44 46 48 50 49 48 46 45 45 47 46 45 43 42
57 58 59 58 58 56 57 56 54 52 53 51 48 47 45 43 43 41 40 40 40 41 42 43 42 42 43 42 42 43 45 45 46 47 47 47 47 44 43 44 46 46 44
57 57 57 58 58 58 57 57 57 55 54 54 51 50 47 45 44 44 42 40 40 40 39 40 42 43 43 43 42 43 44 44 45 46 46 46 47 46 44 43 43 45 45
54 55 57 58 57 59 58 58 57 56 55 54 53 50 49 49 48 46 45 45 42 41 39 39 37 39 38 39 39 42 44 43 44 45 47 46 45 43 43 43 42 42 42
53 55 56 56 57 58 58 58 57 57 56 54 52 50 52 50 49 47 46 45 41 41 37 38 38 36 36 36 37 40 40 43 44 44 44 45 45 46 46 45 43 41 40
53 55 56 56 57 57 57 57 58 57 57 56 55 52 53 52 50 48 48 46 46 43 37 37 36 38 37 37 37 39 41 40 41 42 43 44 45 46 47 47 47 45 43
55 55 56 56 56 57 57 57 57 57 56 56 54 52 51 51 50 50 49 46 47 45 44 39 37 37 37 33 38 39 39 41 40 40 41 42 43 44 45 45 46 45 45
54 54 55 56 56 57 57 56 56 55 52 52 51 51 50 50 49 48 48 46 44 44 44 42 40 39 36 37 35 38 39 38 38 39 40 40 41 41 43 43 43 43 44
56 56 55 55 56 56 56 54 53 54 52 52 51 50 50 50 48 48 49 45 45 42 40 41 38 35 36 38 39 39 36 32 34 36 37 38 39 40 40 40 41 41 41
54 54 55 56 56 56 55 56 55 54 52 52 52 50 50 49 48 48 48 48 46 41 41 39 37 36 37 36 36 35 34 34 31 34 35 36 36 37 38 38 39 40 40
54 55 56 56 57 57 56 56 54 54 53 53 54 52 50 50 48 49 47 45 43 40 38 36 35 34 34 34 32 31 30 31 30 26 28 30 32 32 34 36 37 37 39
57 57 58 58 57 57 56 55 54 54 53 52 51 50 49 49 47 46 45 42 40 37 35 33 32 32 33 30 30 29 28 27 26 25 25 26 27 28 29 32 33 34 36
57 58 57 57 56 55 48 45 48 52 51 50 47 42 42 41 39 37 37 37 37 35 33 32 34 32 33 31 30 28 26 24 20 27 27 26 26 26 26 27 31 33 33
57 57 56 55 54 51 44 43 41 47 45 41 38 38 36 35 35 34 33 32 32 32 31 34 34 32 32 29 26 25 23 23 22 23 27 25 27 26 27 25 32 32 33
50 48 46 45 42 38 38 39 38 39 37 36 36 34 33 32 33 32 32 31 31 32 32 31 31 27 27 28 29 28 27 28 28 26 27 27 26 25 27 27 31 30 31
42 41 40 38 36 35 35 35 35 33 31 31 31 31 31 31 31 32 30 29 28 28 30 30 30 30 29 29 29 29 28 26 25 23 24 25 25 24 25 26 27 30 31
36 35 33 33 34 33 34 33 31 30 29 28 28 28 29 28 29 28 27 26 25 26 26 26 26 25 25 25 24 25 26 25 23 22 24 25 23 22 24 22 25 28 28

GFSMA_sfc_dewp_096.txt.gz
Dewpoint
61 59 58 58 58 58 58 57 56 56 54 53 52 53 52 52 53 50 52 58 58 57 55 55 54 53 52 51 51 50 51 50 49 50 50 50 50 48 47 46 46 46 46
60 58 57 55 57 58 57 57 55 52 50 50 51 51 51 51 52 52 51 54 58 58 56 54 54 53 52 51 51 50 50 50 49 51 51 50 48 47 46 45 45 44 44
60 58 57 54 53 55 57 56 54 50 46 43 44 45 47 51 51 53 51 52 54 57 57 57 54 52 51 51 49 50 49 49 49 50 50 49 48 47 45 44 42 42 42
58 59 55 54 53 54 54 52 50 47 45 43 43 43 43 46 50 53 52 51 51 50 56 58 56 54 51 52 47 47 47 47 46 51 50 49 47 46 44 41 40 40 40
58 56 55 54 54 52 51 50 48 49 47 45 42 43 44 44 49 49 52 53 52 51 49 57 57 56 55 52 47 47 47 47 47 48 48 47 45 43 41 39 38 38 37
59 57 56 56 53 50 50 49 50 49 48 46 39 42 45 44 45 49 51 52 51 51 49 50 51 48 54 53 48 48 48 47 48 47 46 45 43 42 40 39 38 37 36
58 58 54 56 54 52 52 52 51 50 48 47 43 43 44 45 46 44 47 50 50 49 47 46 45 41 45 54 51 48 49 49 49 48 46 45 44 43 42 40 40 38 37
58 57 56 56 55 52 53 53 52 49 49 48 45 42 40 41 42 43 43 45 48 44 43 45 46 45 42 42 45 50 49 49 49 48 48 47 46 45 43 42 41 41 40
58 58 55 55 56 54 53 54 52 52 49 48 48 44 42 42 43 42 44 43 46 46 44 44 45 45 44 42 45 48 51 52 50 50 49 49 49 47 46 45 44 43 42
58 58 56 56 57 55 55 54 52 53 51 48 48 47 50 48 44 44 45 44 44 45 48 45 43 45 45 43 45 46 48 49 52 52 50 49 48 49 48 48 47 46 45
58 58 58 57 57 56 57 57 55 55 52 51 49 49 48 47 47 45 45 44 44 43 43 46 46 45 44 45 44 45 46 47 48 50 51 50 49 48 47 48 49 49 48
58 57 57 57 58 56 56 57 58 58 56 55 53 53 51 50 47 47 47 48 50 46 45 44 45 44 45 45 45 45 47 45 46 47 48 48 47 47 48 47 46 45 45
55 56 57 58 57 57 57 58 58 58 58 56 57 55 54 53 52 50 48 49 48 47 43 44 45 45 43 45 44 45 46 45 45 46 48 48 48 47 47 47 45 44 44
52 55 55 55 56 56 58 59 60 58 58 58 58 57 56 57 53 50 49 49 47 46 45 41 42 40 42 43 44 45 43 44 44 45 46 46 47 47 46 45 43 42 41
52 54 56 56 56 56 56 58 57 57 58 59 58 59 57 54 53 53 52 50 49 46 44 45 43 42 40 40 41 42 41 41 43 43 43 44 45 45 45 46 46 46 45
52 52 54 55 55 55 55 56 56 56 56 57 57 57 57 56 55 55 53 50 49 48 46 48 45 46 44 38 40 40 38 42 42 42 42 42 43 44 45 45 45 46 46
53 53 53 54 54 54 54 56 56 55 55 56 57 58 57 56 55 54 52 51 49 49 47 49 51 48 45 43 38 38 39 40 40 41 41 41 41 42 42 43 43 44 45
54 54 54 53 53 53 55 56 56 55 56 56 56 55 54 53 53 53 51 50 49 49 48 47 49 42 43 41 39 40 37 35 38 40 41 40 40 40 40 40 40 40 41
54 54 54 54 54 54 54 55 57 56 55 56 56 55 54 52 51 51 51 49 50 49 48 47 47 41 40 40 39 40 40 40 35 39 36 36 37 38 38 38 38 39 39
54 54 54 54 54 54 53 54 56 56 57 57 57 54 54 53 51 51 50 49 49 48 47 44 41 37 37 39 39 38 38 40 39 33 32 32 33 34 36 36 36 36 36
54 53 54 54 55 55 56 56 57 57 56 55 54 53 54 51 47 47 49 49 47 43 39 38 36 35 36 35 35 38 37 38 37 35 32 27 25 25 27 33 32 34 36
54 55 55 56 56 57 49 46 50 55 53 51 50 43 40 40 38 37 36 35 38 38 35 35 34 34 33 33 34 35 35 36 33 32 26 27 25 24 25 26 30 33 33
56 56 56 54 47 41 39 43 41 46 42 40 38 38 36 35 35 34 34 33 33 33 32 35 34 33 33 34 35 35 33 29 26 28 26 24 27 27 27 24 32 32 33
49 46 43 40 38 36 37 37 36 36 34 34 34 33 32 32 33 33 32 31 31 31 32 33 34 34 34 32 31 30 30 31 30 26 27 29 27 27 29 27 32 34 33
38 37 36 36 34 34 34 34 33 31 30 29 30 30 29 29 31 32 30 30 30 30 33 33 32 32 32 31 31 32 30 28 27 25 27 28 28 27 28 29 28 32 33
34 33 32 33 33 33 33 33 31 30 28 27 27 28 28 28 29 29 30 30 28 29 30 30 30 28 27 26 24 25 26 27 27 26 26 29 27 27 29 26 27 27 27

GFSMA_sfc_dewp_102.txt.gz
Dewpoint
64 65 63 62 56 57 56 54 53 55 54 53 54 53 53 53 53 54 56 59 59 58 56 56 55 54 54 54 53 52 52 52 52 52 52 51 50 49 48 48 47 47 46
64 63 61 61 59 57 56 54 54 56 56 54 54 53 52 52 52 54 55 57 58 58 57 56 55 55 54 54 53 53 52 52 52 52 51 51 50 48 47 47 46 46 45
64 61 60 61 59 57 58 56 57 57 55 52 53 54 52 53 53 53 54 54 56 58 57 57 56 54 54 54 53 53 52 51 51 52 52 51 49 48 47 45 45 44 44
62 60 59 59 59 58 58 57 57 55 54 52 51 51 52 52 53 53 52 53 53 53 57 58 58 57 55 54 54 52 52 52 51 53 52 51 50 49 47 46 45 44 44
61 59 58 61 61 58 58 58 56 54 52 49 48 49 50 51 52 50 52 52 52 52 53 57 57 57 57 54 54 53 53 52 52 52 53 52 50 50 48 45 44 43 42
61 59 59 60 60 60 58 57 55 54 51 50 41 46 49 49 50 52 52 52 52 53 52 52 54 54 56 56 54 54 54 53 52 52 53 52 51 50 48 45 43 43 42
60 58 56 57 57 57 58 57 55 53 52 53 50 49 48 48 50 50 52 52 52 53 53 54 53 52 53 57 56 55 53 53 53 51 53 53 51 49 47 45 44 43 42
59 56 56 56 55 56 56 55 54 53 54 54 50 48 45 46 47 48 49 51 53 52 51 52 53 52 51 52 53 56 54 53 53 53 52 53 51 49 47 46 45 44 44
58 57 57 57 56 55 56 55 55 54 53 52 50 49 46 44 45 47 47 48 49 53 52 51 50 50 50 49 52 54 54 53 55 54 54 54 53 50 49 47 47 46 46
58 58 59 58 57 56 55 56 56 55 53 50 51 51 51 51 48 45 46 47 48 48 51 50 49 48 47 49 49 49 50 50 52 55 56 56 55 52 50 50 49 49 48
57 57 58 57 56 56 57 56 56 55 55 52 50 50 50 50 52 49 47 45 46 46 48 50 49 48 47 47 48 49 48 48 49 52 54 56 56 55 54 53 51 51 50
57 57 56 58 58 58 57 57 57 55 56 55 53 52 51 49 48 49 48 48 48 49 46 46 49 49 49 49 49 48 49 47 47 49 51 53 55 55 55 55 55 53 52
56 56 56 58 58 57 57 58 57 57 56 56 56 56 54 52 53 52 51 50 50 50 50 50 48 47 47 49 49 49 49 47 47 47 48 50 51 53 54 55 55 55 55
56 56 56 57 57 56 57 57 57 58 58 58 56 56 56 56 56 54 52 51 49 50 50 49 51 50 49 49 49 48 48 46 46 46 47 48 48 50 51 52 53 54 53
57 57 56 56 57 57 57 57 56 57 57 56 56 56 56 57 57 57 55 54 52 49 48 49 50 51 51 52 52 51 49 48 46 45 46 47 48 48 48 49 50 51 51
56 57 56 55 54 54 55 56 55 55 56 56 57 56 57 57 57 57 57 56 55 52 50 51 50 52 53 51 51 51 50 49 47 46 45 45 46 46 46 47 47 47 48
56 56 56 56 55 54 55 55 54 54 54 54 56 56 56 56 57 57 57 57 55 54 51 52 52 53 53 51 50 49 49 49 50 46 45 45 45 44 44 45 45 46 46
56 55 56 55 55 54 54 54 55 54 55 55 55 56 55 55 56 56 56 56 56 54 53 52 53 52 51 51 50 49 49 48 48 47 45 45 44 43 43 43 43 43 43
55 54 55 54 54 54 54 55 55 55 54 54 55 54 54 55 55 54 55 55 55 55 53 52 51 51 49 45 46 45 44 45 43 44 42 41 41 42 42 41 41 41 41
56 55 55 55 55 54 54 54 53 54 54 55 54 46 41 40 40 42 47 47 49 50 51 49 48 47 40 40 39 39 39 40 41 44 43 41 41 39 39 39 39 39 40
55 55 55 55 55 55 50 49 54 54 51 45 41 38 38 37 36 35 37 36 38 41 41 40 37 35 35 35 35 36 36 35 36 39 39 39 40 39 40 40 39 39 39
56 56 54 49 43 41 38 41 45 42 41 39 37 36 36 36 34 34 33 33 33 34 34 34 33 33 32 32 33 32 32 32 32 36 35 33 38 36 37 36 37 38 38
46 42 40 39 37 36 36 37 37 36 35 34 34 34 33 33 34 33 33 32 32 33 31 33 31 31 31 32 32 32 32 32 32 35 33 31 34 34 36 35 36 37 37
38 36 35 35 34 34 34 34 33 32 32 32 32 31 30 30 32 33 32 31 30 31 31 32 31 31 32 32 32 32 31 31 32 33 34 29 30 31 33 34 36 36 36
35 34 34 33 32 33 33 33 31 30 29 29 30 30 29 28 29 31 31 30 30 30 31 31 31 31 31 31 30 29 27 25 24 27 31 28 31 30 32 33 34 34 34
32 32 31 32 32 32 33 33 31 30 29 28 28 28 28 27 29 30 27 26 24 25 29 27 28 28 29 29 30 29 28 23 23 24 27 23 24 25 23 28 26 27 28

GFSMA_sfc_dewp_105.txt.gz
Dewpoint
64 62 60 59 57 57 56 52 52 50 50 50 52 53 53 54 54 55 57 59 59 58 57 57 56 56 55 54 54 54 53 53 53 52 52 52 52 51 50 48 49 48 47
63 61 59 56 56 55 54 51 53 53 52 51 53 52 53 54 54 55 56 57 58 59 58 56 56 56 55 54 54 53 53 53 52 52 52 52 50 49 48 48 47 47 46
63 62 59 55 56 55 53 53 54 55 53 53 52 52 53 54 54 54 55 56 56 57 58 58 57 56 55 55 54 54 53 53 53 52 52 52 50 49 48 47 47 46 45
63 62 60 56 58 55 54 55 55 55 52 52 52 52 51 53 54 54 54 54 55 54 57 58 58 57 56 55 54 54 54 53 52 52 53 53 51 50 48 47 46 45 45
62 61 61 59 59 56 57 56 56 54 51 51 50 50 50 52 53 53 53 53 54 54 54 57 58 57 58 56 55 54 54 54 54 52 54 53 52 51 50 48 46 46 45
61 61 61 59 61 57 59 59 54 53 50 50 47 48 49 50 52 52 52 52 53 53 53 53 55 55 57 57 55 55 55 55 55 54 53 54 53 52 51 50 47 46 45
61 61 60 60 61 58 59 57 54 50 49 48 47 47 47 47 49 50 52 52 52 52 52 52 53 53 54 57 57 55 56 55 56 54 54 53 54 53 51 50 48 46 46
60 59 58 58 59 59 58 56 53 52 50 52 47 47 44 44 46 47 49 51 52 52 52 52 52 52 52 53 54 57 55 56 55 55 55 55 56 55 52 51 49 47 46
60 57 57 56 58 59 56 55 52 52 51 52 47 47 45 43 44 46 46 47 50 52 52 52 52 52 52 52 53 54 54 55 57 56 57 56 56 56 55 52 50 48 47
59 57 57 56 56 58 56 55 54 53 51 49 50 50 50 49 45 42 45 46 47 48 52 51 51 52 52 52 52 52 51 52 54 56 57 57 56 56 56 54 51 49 48
59 57 58 57 57 56 56 54 56 56 53 52 50 49 48 49 49 47 43 43 46 47 48 50 51 50 49 49 50 50 51 50 52 54 55 56 57 57 56 55 54 52 50
58 57 58 57 57 57 57 57 56 56 56 54 51 51 49 48 47 48 46 46 45 46 46 48 50 50 49 49 49 49 49 48 49 52 53 53 55 57 57 56 56 55 54
57 57 57 57 58 58 58 57 56 56 56 56 53 52 52 50 50 49 48 47 47 49 49 48 47 49 49 49 49 49 49 47 47 49 50 51 52 54 56 56 56 56 56
57 57 56 57 58 58 57 57 57 57 56 56 56 56 55 54 54 53 51 48 47 47 48 48 50 49 48 48 49 48 49 47 47 47 48 49 50 50 52 54 55 56 56
57 56 55 55 58 58 57 56 56 56 56 56 56 56 56 56 56 56 55 53 52 49 49 49 50 52 51 51 50 50 50 49 48 47 47 48 49 50 50 51 52 53 54
55 56 55 54 56 57 56 56 55 56 55 56 56 55 55 55 55 56 55 55 54 53 51 52 51 52 52 53 53 53 53 50 48 46 46 46 47 48 49 49 49 50 51
55 56 55 54 55 56 56 55 54 54 54 54 55 55 55 55 56 56 56 56 55 55 53 53 54 54 51 52 53 53 52 52 51 46 45 45 45 45 46 47 47 48 49
56 56 56 55 55 54 54 54 54 54 54 53 53 54 54 55 55 55 56 55 55 55 54 53 54 54 52 52 52 52 51 50 49 47 45 45 45 45 45 44 44 45 45
55 56 56 55 55 55 54 54 54 54 54 54 55 54 52 50 52 48 50 51 51 52 52 50 49 50 48 43 44 44 43 43 45 45 43 42 42 43 43 43 43 43 43
56 54 56 56 56 55 54 54 54 54 55 50 45 42 40 39 39 42 41 40 43 44 44 44 43 39 38 39 39 38 38 40 40 42 43 41 41 40 40 40 40 41 41
55 55 55 55 54 52 47 51 54 52 45 40 39 37 37 37 36 36 37 35 37 37 37 37 34 35 33 33 33 34 34 34 36 37 37 39 39 40 40 41 40 40 40
55 52 45 44 41 39 38 41 43 41 39 37 36 36 36 35 34 34 34 33 33 33 32 33 31 31 30 31 32 32 32 31 31 37 34 32 35 35 37 38 38 38 38
42 40 38 37 36 36 36 37 36 36 35 34 34 33 32 33 34 33 33 32 32 31 31 32 29 29 29 29 29 28 28 27 29 30 32 29 29 30 32 33 36 37 38
38 36 35 34 34 34 34 34 34 32 32 31 31 31 30 31 32 32 32 31 30 31 31 30 29 29 28 29 29 28 27 27 26 28 25 24 27 25 26 27 31 34 36
34 33 33 33 32 32 33 32 31 30 29 29 30 30 30 30 30 29 27 25 25 27 29 30 30 30 32 30 26 23 21 19 18 19 23 19 22 19 20 21 26 25 23
32 31 31 32 33 32 33 32 31 30 28 28 28 29 29 27 27 25 25 24 24 25 24 24 25 25 23 23 23 22 20 18 18 15 20 18 17 17 15 19 18 18 19

GFSMA_sfc_dewp_108.txt.gz
Dewpoint
63 63 62 61 60 58 56 53 51 51 50 51 53 53 54 54 55 56 57 59 59 58 57 57 57 56 56 55 55 54 53 53 53 53 53 52 52 52 51 50 50 49 48
63 62 60 59 57 56 53 51 52 49 49 50 53 53 54 54 55 56 56 57 59 59 58 57 56 56 56 55 54 54 54 53 53 53 52 52 52 52 49 49 49 47 47
63 61 59 56 56 54 51 51 53 51 51 51 52 53 54 54 55 55 55 56 56 58 59 58 57 56 56 55 54 54 54 53 53 53 52 52 51 50 49 48 48 47 46
63 60 57 54 55 54 50 52 53 53 52 52 52 53 53 54 54 54 55 55 55 55 57 58 58 58 56 55 55 55 54 54 54 54 53 53 53 51 50 48 48 47 47
62 59 56 54 55 53 50 53 54 54 51 51 51 51 53 53 53 54 54 54 54 54 54 58 58 58 58 57 56 56 55 55 54 53 54 54 53 52 51 50 48 48 47
62 60 56 55 55 54 51 55 54 54 52 51 49 49 52 53 54 53 53 54 54 54 54 54 56 55 57 58 56 56 56 55 56 55 54 54 54 54 52 52 50 49 48
62 61 57 57 56 54 52 55 55 52 50 49 48 47 48 50 52 53 53 53 53 53 53 53 54 54 54 58 58 56 56 57 56 56 56 55 55 56 55 53 52 50 48
62 61 59 57 56 55 56 56 53 51 50 48 47 46 44 44 47 49 52 52 52 52 52 52 53 53 53 54 55 58 57 56 57 56 58 57 57 56 57 55 53 52 50
61 61 60 58 58 57 58 56 53 51 49 50 47 46 43 42 44 46 47 51 52 52 52 52 52 52 52 52 54 55 55 56 57 58 58 58 57 57 57 57 55 53 52
60 60 60 59 59 58 57 56 53 52 50 47 49 49 48 47 45 43 45 46 48 51 52 52 52 52 52 52 52 52 51 53 54 57 58 58 58 58 57 57 57 56 54
60 58 58 59 60 59 58 55 54 55 53 51 48 49 49 49 49 44 42 43 45 47 48 51 51 52 52 52 52 52 51 50 51 54 56 57 58 58 58 57 57 57 56
60 58 58 58 59 59 57 57 57 56 55 54 53 50 49 48 48 48 46 45 44 46 46 47 49 51 51 51 52 51 50 50 50 52 54 55 56 57 57 58 58 58 57
59 58 58 58 58 59 58 58 57 56 56 55 54 53 51 49 50 49 48 46 46 47 48 48 47 48 48 50 50 50 50 48 48 50 52 53 54 55 55 56 57 58 58
58 58 58 58 58 58 58 58 57 56 56 56 55 54 54 52 52 51 49 48 47 48 48 48 49 48 48 49 49 49 49 47 47 47 48 49 51 52 52 53 54 55 56
58 58 58 58 58 57 57 57 56 56 56 56 56 56 55 55 55 55 54 52 50 48 47 49 49 51 51 50 49 49 49 48 47 47 47 47 49 50 50 51 52 52 53
57 57 57 57 57 57 57 57 56 56 56 55 56 55 55 55 56 56 55 55 54 52 49 49 50 51 52 52 52 51 51 50 49 47 46 46 47 48 49 49 50 50 51
57 56 56 56 56 57 57 57 56 55 55 54 53 53 53 54 55 55 55 55 54 53 51 52 53 54 51 52 52 53 54 54 53 47 44 45 45 45 45 46 46 47 48
56 55 55 55 55 55 56 55 55 54 54 54 54 54 54 54 54 55 54 53 54 54 54 53 54 54 52 49 45 45 44 43 44 44 44 43 43 43 43 43 44 44 44
55 55 54 54 54 54 55 55 54 54 54 54 54 53 52 49 52 47 47 47 46 47 48 47 47 43 43 40 39 41 40 41 39 41 42 42 42 42 41 41 41 41 42
56 55 55 54 54 54 54 53 54 54 54 48 43 40 38 38 39 41 39 39 41 42 41 40 39 38 36 37 36 34 33 34 34 37 37 37 37 37 39 40 40 40 40
55 56 56 55 55 54 52 53 53 53 43 39 38 36 36 36 36 35 35 35 36 36 36 34 33 32 31 31 30 32 32 31 31 35 30 32 32 33 33 34 35 36 38
55 51 49 44 41 40 39 42 44 41 39 37 35 34 34 34 34 34 33 33 32 33 32 31 30 30 28 29 29 27 26 26 26 30 28 28 30 30 30 26 28 31 34
42 40 39 38 36 37 37 38 37 36 35 34 33 33 33 33 33 32 32 32 32 32 30 30 28 27 27 28 27 24 24 24 22 26 22 22 26 23 20 18 22 27 26
38 36 35 34 34 34 35 34 33 32 31 31 31 31 31 31 32 32 30 29 30 30 30 30 29 28 26 25 23 22 21 20 20 22 21 16 20 17 17 18 21 23 21
35 34 33 33 32 32 33 32 31 30 29 30 30 29 28 28 29 30 28 26 24 24 28 27 25 23 22 21 21 18 17 15 14 15 19 15 16 16 15 17 19 18 17
33 33 32 32 32 32 32 31 29 28 27 28 28 29 29 29 29 28 25 22 21 22 22 18 17 16 17 16 17 17 15 12 11 11 15 10 10 11 9 13 12 14 16

GFSMA_sfc_dewp_111.txt.gz
Dewpoint
63 63 64 62 61 58 58 55 53 52 51 53 53 54 54 55 55 56 57 59 59 59 58 58 57 57 56 55 55 54 53 53 53 53 53 53 52 52 52 51 51 49 49
63 63 63 61 59 58 55 54 52 51 51 53 53 54 54 55 55 56 56 57 59 59 59 57 57 56 56 55 55 54 54 53 53 53 53 52 52 53 51 50 50 49 48
63 63 62 59 58 55 52 51 51 50 51 53 53 53 54 55 55 55 56 56 57 58 58 59 58 56 56 55 55 54 54 54 53 53 53 53 53 52 51 49 49 48 48
63 61 60 58 56 53 51 51 51 50 51 52 53 53 53 54 55 55 55 55 55 56 58 59 59 58 56 55 55 55 55 54 54 54 53 53 53 52 51 50 50 49 48
61 60 59 56 55 52 50 50 52 50 50 52 53 53 53 53 54 55 54 54 55 55 55 58 58 58 58 57 56 56 56 55 55 55 54 54 54 54 52 51 50 49 49
61 60 57 55 53 50 49 51 52 52 51 52 52 52 53 53 54 54 54 54 54 54 54 54 56 56 57 58 57 57 57 56 56 56 55 55 55 55 54 53 52 50 49
61 58 56 55 53 48 49 52 52 51 51 51 49 49 49 53 53 53 53 53 53 53 53 53 54 54 55 58 58 57 57 57 57 57 57 56 56 57 57 56 54 53 52
61 59 55 55 52 49 50 53 52 51 51 50 48 47 45 46 50 51 53 53 53 53 53 53 53 54 53 53 55 58 57 57 58 58 59 58 58 58 57 58 56 54 54
62 60 56 55 52 51 49 53 53 52 50 49 48 47 44 43 45 47 50 52 52 52 52 52 52 53 53 53 54 55 56 57 58 58 59 59 59 59 58 58 58 57 56
62 61 58 55 53 53 50 53 54 53 51 48 48 47 47 46 44 42 46 48 52 52 52 52 52 52 52 53 53 53 52 53 55 58 58 59 59 59 59 59 58 58 58
61 61 60 57 56 54 56 54 55 54 51 49 48 49 49 49 48 44 42 43 46 47 51 52 52 52 52 52 52 52 51 50 51 55 57 58 58 58 59 59 59 59 58
61 61 61 60 59 58 57 56 55 54 53 51 51 49 49 48 48 47 46 45 45 46 46 48 51 52 52 53 53 52 51 50 50 52 54 56 57 58 58 58 59 59 58
60 60 60 60 60 59 58 56 56 55 54 53 54 52 51 50 50 50 50 48 47 48 48 48 47 48 50 52 52 51 52 49 49 50 52 53 54 55 56 57 57 58 58
60 59 59 59 60 58 57 57 56 56 56 56 55 55 54 53 52 50 49 50 47 47 49 48 50 48 48 48 49 49 50 48 48 48 49 50 51 52 53 53 54 55 56
59 59 58 59 59 58 58 57 57 57 57 56 56 55 55 55 54 54 53 51 50 48 47 49 49 51 50 49 49 50 49 49 47 48 47 47 49 50 50 51 51 52 53
58 58 58 58 58 58 58 58 57 57 56 56 56 55 55 56 56 55 55 54 53 51 49 50 50 50 52 52 52 51 52 51 47 45 44 45 45 46 46 46 47 48 49
58 58 57 57 57 57 57 57 57 56 55 55 55 55 54 55 55 55 55 55 54 54 51 51 52 52 50 49 47 46 46 45 45 42 43 43 42 42 42 42 42 42 43
57 57 57 57 57 56 56 56 55 56 55 55 55 54 54 53 54 54 54 54 53 53 53 52 53 46 41 42 42 40 40 37 38 40 40 38 38 38 40 40 40 40 41
56 56 56 56 56 56 56 56 56 55 55 55 54 53 49 48 49 47 47 47 46 47 46 46 44 41 39 36 37 36 37 35 35 38 34 34 34 35 35 35 35 35 35
55 55 55 55 56 56 56 55 55 54 52 45 42 40 38 39 40 41 40 40 41 41 40 39 37 35 34 34 34 30 30 30 31 32 30 31 30 33 33 30 29 28 33
55 55 54 54 54 54 53 54 53 51 42 39 37 36 36 36 36 36 35 35 36 36 34 33 32 31 29 29 27 28 26 27 29 27 26 25 28 29 25 23 23 24 27
55 54 51 48 46 44 40 44 46 43 39 36 35 34 34 34 33 33 33 32 32 32 30 29 28 27 26 27 27 25 23 21 21 27 22 20 26 23 20 16 20 21 26
45 42 41 40 38 39 39 39 38 37 35 34 33 33 33 33 32 31 32 31 32 31 29 29 24 24 22 22 22 20 20 19 17 21 19 17 20 19 16 14 18 22 22
39 37 36 36 35 35 36 35 34 33 32 32 32 32 32 31 31 30 28 28 28 28 27 26 24 22 22 20 19 18 18 17 16 19 15 12 15 12 11 12 17 20 19
36 34 34 33 33 33 34 33 32 30 29 28 29 29 29 30 31 30 26 25 25 23 21 22 21 20 18 17 16 14 11 10 8 7 14 10 11 10 10 11 15 16 16
33 33 32 32 32 31 33 32 30 28 27 27 28 29 29 28 27 26 24 22 19 17 17 15 14 13 12 12 14 13 11 9 8 5 12 9 9 9 8 11 9 11 6

GFSMA_sfc_dewp_114.txt.gz
Dewpoint
62 63 63 63 62 62 61 57 53 53 53 54 55 55 55 55 56 57 58 59 60 60 58 58 58 57 56 55 55 55 54 54 53 53 53 53 53 52 52 52 51 50 50
62 62 62 62 61 60 59 56 52 52 53 54 54 54 54 55 56 56 57 58 59 59 59 58 57 57 56 56 55 54 54 54 54 53 53 53 53 53 52 51 51 50 49
62 62 62 61 60 59 57 53 51 51 53 53 53 54 54 55 56 56 56 57 57 58 59 59 58 57 56 56 55 55 54 54 53 53 53 53 52 53 52 51 51 50 49
62 62 62 61 59 57 55 53 51 50 52 53 53 53 54 55 55 55 55 56 56 56 58 59 59 58 57 56 56 55 55 54 54 54 53 53 53 53 53 52 51 50 50
63 62 62 60 57 55 54 53 51 51 52 52 53 53 53 54 55 55 55 55 55 55 56 58 58 58 58 57 56 56 55 55 54 54 54 54 54 54 53 52 52 51 51
62 62 61 57 56 53 52 52 50 51 52 53 52 52 53 53 54 54 54 55 55 55 55 55 57 56 58 59 57 56 56 56 55 55 55 55 55 55 55 55 54 53 52
61 61 58 57 55 52 50 51 50 50 51 52 51 50 50 53 52 53 54 54 54 54 54 54 55 55 55 58 59 57 57 57 57 57 57 56 57 57 57 57 56 55 54
60 59 57 56 53 50 50 50 50 50 51 52 50 49 48 49 51 52 53 53 53 54 54 54 54 54 54 54 56 58 58 57 58 58 59 59 59 59 58 58 58 58 56
59 58 57 55 53 49 49 50 50 50 50 50 51 48 45 46 48 49 51 53 53 53 53 53 53 53 54 54 54 55 55 57 58 58 59 60 60 60 60 60 59 59 59
60 58 56 55 52 49 48 50 51 51 50 49 49 48 48 47 46 44 47 50 52 52 52 52 53 53 53 53 54 53 52 52 55 57 58 59 59 60 60 60 60 60 59
61 59 57 56 53 52 49 50 53 53 52 50 49 49 49 49 47 44 43 45 47 51 52 52 53 53 53 53 53 53 51 50 51 54 57 58 59 59 59 59 59 60 59
61 61 58 57 55 53 52 52 54 54 53 52 50 49 49 48 48 47 45 45 46 47 48 51 52 53 53 53 53 52 51 50 50 52 54 55 57 58 59 59 59 59 59
60 61 60 58 57 54 55 53 55 54 53 52 51 51 51 50 51 50 49 48 48 49 49 49 48 50 51 52 53 52 52 49 49 50 52 53 54 55 55 55 55 56 57
60 61 61 59 58 56 57 56 55 55 54 53 53 54 53 53 52 51 50 49 48 48 49 48 50 49 49 50 50 49 51 48 47 48 48 50 50 51 51 52 52 53 53
59 60 61 60 59 58 57 56 55 55 54 54 55 55 55 55 55 54 53 52 50 47 48 49 50 51 51 50 50 51 51 44 44 44 45 45 46 46 45 45 46 46 46
59 59 59 60 60 59 57 57 56 56 55 55 55 55 55 55 55 55 54 54 53 51 50 51 52 52 51 51 46 47 46 44 42 42 41 41 41 41 41 41 42 42 42
59 59 59 59 59 58 57 57 56 56 55 56 56 55 55 55 55 55 55 55 54 54 52 52 53 47 43 43 41 42 40 40 40 37 37 37 36 37 37 37 36 35 36
58 58 58 58 58 58 58 57 56 56 56 55 55 55 55 55 54 55 54 54 54 54 53 51 47 42 37 40 38 38 36 34 39 35 35 31 34 35 34 33 31 30 34
57 57 57 57 57 57 57 57 57 56 56 55 55 55 54 54 53 51 50 50 48 47 46 47 39 38 36 35 35 34 33 32 34 32 30 27 31 32 29 27 27 26 26
56 56 56 56 56 56 56 57 56 55 52 47 44 43 43 45 45 44 42 42 42 40 40 39 35 34 33 32 31 28 28 29 31 25 25 23 27 27 25 22 21 22 22
55 55 55 56 56 56 56 56 54 47 41 38 37 37 37 38 37 37 37 37 37 36 35 33 31 29 28 27 25 26 23 25 28 24 22 21 25 24 21 18 17 20 23
55 55 53 51 49 47 43 45 46 42 39 36 34 34 34 34 33 33 33 32 33 33 30 29 27 23 23 23 23 21 19 19 18 24 19 17 22 18 16 9 16 19 23
48 45 43 44 42 42 40 40 39 39 36 35 33 33 32 32 31 31 30 29 29 28 27 26 23 22 19 19 19 17 16 14 12 17 15 14 17 14 10 6 16 20 20
41 39 37 37 36 37 37 37 35 35 34 33 33 32 31 30 30 29 27 25 24 24 24 23 21 20 19 15 15 14 13 12 12 15 12 10 8 8 10 10 16 18 17
36 35 35 34 33 34 34 34 32 31 30 30 31 31 30 29 30 29 25 22 21 21 22 20 19 17 16 15 14 12 10 9 7 4 12 9 9 8 6 8 10 13 13
34 33 32 33 33 32 33 32 31 30 28 27 28 28 28 28 27 25 23 21 18 17 14 13 10 10 10 9 13 10 9 8 6 5 10 8 6 6 5 4 5 6 6

GFSMA_sfc_dewp_117.txt.gz
Dewpoint
65 63 64 65 64 63 63 61 60 59 60 59 58 58 58 58 57 56 57 60 60 60 59 59 58 57 56 56 56 55 54 54 54 53 53 53 53 53 53 52 52 50 50
65 64 63 64 64 63 61 60 58 58 58 58 58 57 57 56 56 58 56 56 59 59 60 58 58 57 56 56 56 55 54 54 54 54 54 53 53 53 52 51 51 50 49
63 63 63 63 63 63 60 58 57 57 56 57 57 56 56 57 56 57 57 56 56 58 58 59 59 57 56 56 55 55 54 54 54 54 54 53 53 53 53 51 51 51 49
63 63 63 62 62 61 59 56 56 55 55 56 55 55 54 55 57 57 56 56 55 54 57 59 59 59 58 56 56 56 55 54 54 54 54 54 53 53 54 53 51 51 51
63 63 62 62 60 59 58 57 55 55 55 55 54 54 54 54 56 55 56 57 57 55 54 58 58 58 59 58 56 56 56 55 55 55 55 55 54 54 54 54 53 52 52
63 62 62 61 59 58 57 56 55 54 55 54 52 53 55 55 55 56 56 55 56 56 56 56 56 55 58 59 57 56 56 56 56 56 56 55 55 56 55 55 55 54 54
62 63 62 60 59 57 57 58 55 55 54 55 54 53 54 55 56 55 56 55 55 56 56 56 55 54 54 59 59 58 57 57 57 57 58 57 58 58 58 58 57 57 56
61 62 61 59 58 57 56 55 55 54 54 55 52 52 51 52 54 54 55 55 56 54 54 56 55 56 55 54 55 59 58 58 58 58 60 60 60 60 59 59 59 59 59
61 60 60 59 57 55 54 56 55 54 52 54 55 51 50 49 51 53 54 54 55 55 54 55 55 55 56 55 55 56 56 57 58 58 59 60 60 61 61 60 60 60 60
59 59 59 58 56 54 53 55 54 54 54 53 54 51 53 52 49 49 51 54 54 54 55 54 54 55 55 54 55 54 52 53 55 57 58 59 60 60 60 60 60 61 60
59 58 58 57 54 53 54 54 55 55 54 54 53 51 51 50 52 49 48 50 52 53 54 54 55 54 55 55 55 54 52 51 51 54 56 57 58 59 60 60 60 60 60
60 59 57 56 55 53 53 53 54 55 56 55 54 52 50 48 48 47 47 50 50 51 53 54 55 54 55 55 54 52 51 50 50 52 54 55 55 56 56 57 57 57 57
61 59 58 57 56 55 54 53 54 55 56 55 56 53 52 50 51 51 51 50 49 51 51 51 51 53 53 54 54 52 51 49 49 50 51 52 52 53 53 53 54 54 55
60 61 60 59 57 56 53 54 55 55 56 57 56 56 55 54 54 52 51 52 50 50 51 51 52 51 52 53 51 50 46 45 45 46 47 47 47 47 47 47 48 48 49
61 61 60 59 59 56 56 55 56 56 56 57 56 56 55 56 56 56 55 54 52 49 49 52 52 53 54 50 51 46 44 43 42 42 41 42 43 43 43 44 43 43 44
60 60 61 60 59 57 56 55 55 56 55 56 56 55 56 56 56 56 55 55 54 52 50 53 53 50 49 45 45 44 42 40 39 38 38 38 38 38 38 37 36 37 38
59 59 60 60 59 58 57 56 55 55 53 54 54 54 55 56 55 55 55 55 54 54 52 53 53 46 43 41 41 40 40 39 38 33 33 35 36 34 33 32 31 31 33
60 59 59 59 59 59 58 56 55 55 54 54 54 55 55 55 55 55 55 54 55 55 53 52 47 40 39 38 37 35 34 37 36 32 28 31 32 29 27 26 25 24 24
58 58 58 58 58 59 58 57 56 55 55 54 54 54 54 55 54 54 55 54 54 51 51 50 39 38 34 35 33 33 32 34 31 29 25 23 28 26 25 22 20 21 23
57 57 57 57 58 58 58 57 57 56 56 55 55 54 54 54 54 52 49 48 45 44 43 40 36 33 33 32 30 27 27 29 29 22 21 19 26 24 22 18 16 20 22
56 56 56 56 56 56 57 56 54 47 44 41 40 39 39 40 38 39 42 41 41 39 37 34 31 29 27 25 24 23 23 24 26 21 18 15 21 17 15 12 11 19 23
56 55 54 53 51 49 42 43 45 43 40 37 35 34 34 34 33 33 31 31 33 34 31 28 25 23 23 23 21 19 18 18 18 20 15 14 19 12 9 6 15 19 21
49 47 45 45 42 42 40 40 39 38 36 34 33 32 32 31 30 28 28 28 27 26 26 25 23 20 17 18 18 16 15 13 12 16 15 13 10 10 6 3 13 17 18
44 42 39 38 37 37 38 37 36 34 33 33 32 31 31 29 29 27 25 24 23 23 22 21 20 19 16 14 14 14 14 15 13 13 11 13 7 5 6 5 12 16 16
38 36 36 35 34 34 35 35 33 32 31 30 30 30 29 28 28 27 23 22 21 21 22 21 20 19 19 18 16 16 13 12 11 3 11 10 7 4 4 5 4 10 13
34 33 33 33 33 33 34 34 32 31 29 28 28 29 28 27 25 24 22 20 18 15 13 13 15 15 14 15 16 13 12 11 7 8 7 8 4 4 7 4 4 4 5

GFSMA_sfc_dewp_120.txt.gz
Dewpoint
64 63 64 63 65 66 65 62 61 58 59 60 58 59 57 56 55 51 54 60 61 61 59 59 58 57 57 56 55 57 56 55 55 55 55 54 54 54 53 53 51 51 49
65 64 64 67 65 65 63 62 59 57 58 59 59 59 57 54 54 54 54 57 59 60 60 58 58 57 56 57 56 56 55 55 55 54 53 54 53 54 53 52 52 50 49
66 64 64 64 65 64 64 62 60 57 57 58 59 58 56 55 52 55 53 54 56 59 60 60 59 57 57 56 56 55 55 55 55 55 54 54 53 54 53 52 51 51 50
66 65 64 63 64 64 63 60 58 57 57 58 58 56 54 54 55 54 53 53 53 52 58 60 60 59 58 56 56 56 55 55 55 55 54 54 54 53 54 54 52 52 52
65 64 64 63 64 62 61 59 59 58 57 57 56 55 54 54 55 52 53 53 54 52 52 58 59 59 59 58 56 56 56 56 55 55 55 55 55 54 55 55 54 54 53
64 64 63 62 63 61 60 59 58 57 57 56 53 53 54 54 55 54 53 52 53 53 52 55 55 55 58 59 57 57 56 56 56 55 55 55 56 56 56 56 56 56 55
64 63 63 62 61 60 60 59 58 58 55 57 56 55 54 56 56 54 54 52 52 53 53 53 52 51 54 59 59 58 57 57 58 58 58 57 58 58 58 59 58 58 57
64 63 63 62 60 60 59 58 57 56 55 57 53 53 52 53 54 54 54 52 54 52 52 53 53 52 51 52 55 59 58 58 58 58 60 60 60 60 60 60 59 59 59
63 63 62 61 60 60 58 58 57 56 55 56 56 51 50 49 52 54 55 54 55 53 53 54 54 54 55 54 55 56 57 58 59 59 60 60 61 61 61 61 61 60 60
63 62 62 61 60 59 58 58 57 56 57 55 55 51 52 50 49 51 53 54 55 54 56 54 55 55 55 55 56 54 53 53 55 58 58 58 60 60 60 60 60 61 61
61 61 61 59 59 59 58 57 57 59 58 56 55 53 53 53 53 48 49 51 53 54 54 55 55 55 55 55 55 55 52 51 52 54 56 57 57 57 58 58 58 59 59
60 60 58 58 58 58 58 57 57 58 58 57 55 55 52 51 50 49 47 50 51 53 53 54 55 55 55 55 55 53 51 50 50 52 53 54 55 55 55 56 56 57 57
58 58 58 57 57 57 57 57 56 58 58 57 58 55 53 51 49 49 48 49 49 51 52 55 54 54 54 56 54 50 48 47 49 50 50 51 51 51 52 52 52 53 52
60 59 58 57 56 55 56 56 56 57 58 59 58 57 53 52 50 49 48 51 50 49 51 51 52 53 54 54 49 46 45 44 44 45 46 46 46 46 46 46 46 46 46
60 61 60 58 57 55 55 55 56 56 57 59 60 59 55 53 54 53 53 54 52 50 48 53 53 55 50 48 47 44 42 41 40 40 41 41 42 40 39 39 39 40 41
61 61 60 59 58 57 56 55 55 55 56 57 58 58 58 57 58 58 57 56 55 53 51 53 54 49 47 44 44 42 40 37 37 37 38 38 36 36 35 33 32 32 32
60 60 60 60 59 58 58 56 56 56 55 56 57 57 57 57 57 58 58 56 55 55 52 54 49 45 42 41 39 41 39 36 34 33 35 33 31 30 28 27 25 25 26
59 59 59 60 60 57 57 57 55 56 57 55 55 55 55 56 56 56 56 56 55 55 53 52 46 39 38 38 36 35 38 36 33 31 27 29 28 26 24 22 22 23 24
58 59 59 59 59 59 58 57 56 55 55 54 54 54 55 54 54 55 54 54 54 54 54 53 40 37 35 36 34 33 33 33 30 27 21 26 27 24 22 19 17 21 23
58 58 59 59 58 58 59 58 57 56 55 54 54 54 54 54 54 55 54 54 53 50 46 40 35 33 32 31 29 28 27 30 28 20 19 17 22 18 16 15 13 19 22
58 57 58 58 57 57 57 57 57 56 54 49 44 42 41 43 42 44 48 45 45 41 37 34 31 29 27 25 24 22 21 25 24 19 16 15 19 14 14 13 11 15 21
57 57 57 54 51 46 41 43 46 44 40 38 35 35 35 35 33 33 33 33 36 36 33 29 27 24 23 23 22 21 21 21 21 17 13 14 14 10 10 7 13 15 18
52 48 46 45 42 41 39 39 39 38 37 35 34 33 31 31 30 28 28 28 27 28 28 27 23 21 20 20 19 18 18 16 15 12 14 15 11 9 7 3 13 15 17
46 42 40 40 38 37 36 36 35 34 33 33 32 31 30 29 28 27 24 23 22 22 22 21 19 19 18 16 16 16 17 16 14 13 12 18 10 5 6 6 11 12 14
40 39 38 37 36 35 35 34 33 32 31 30 30 30 29 28 28 28 24 22 21 21 22 21 21 21 20 19 18 18 16 19 16 7 11 12 9 6 6 8 5 11 13
36 35 35 35 35 34 34 34 32 31 29 28 28 28 27 26 25 23 21 19 18 17 15 14 14 15 13 13 14 13 14 15 11 13 10 12 6 6 10 7 7 8 8

GFSMA_sfc_dewp_123.txt.gz
Dewpoint
66 66 66 64 62 65 65 65 65 64 60 55 55 59 57 53 53 52 55 61 61 62 60 60 59 59 58 58 58 58 56 56 55 54 54 55 55 54 53 52 51 51 50
67 64 65 66 65 67 66 65 64 62 58 57 58 59 55 53 52 54 55 58 60 60 61 60 59 58 57 56 56 55 56 55 55 55 55 54 54 54 53 52 51 50 50
68 66 64 66 65 66 64 64 64 61 58 57 59 59 54 53 51 53 54 56 57 59 60 61 60 58 57 57 57 56 55 55 55 55 54 54 54 54 53 52 51 51 51
68 67 65 65 66 64 64 63 62 61 58 56 59 57 53 52 52 53 52 53 53 54 59 60 60 59 58 57 57 56 55 55 55 55 55 55 54 54 54 54 53 52 52
68 67 66 64 65 65 63 62 62 60 57 55 58 57 55 51 52 50 51 53 55 53 53 59 59 58 59 59 57 56 56 55 55 55 55 55 55 55 55 55 55 55 55
68 67 66 64 65 63 62 62 61 60 56 56 56 55 54 56 54 53 51 50 51 54 53 55 55 55 59 60 58 57 56 57 56 55 55 55 56 56 57 56 56 56 56
67 66 65 64 63 62 61 61 60 58 57 57 57 55 56 57 57 54 52 49 51 51 53 54 53 51 55 59 60 58 57 57 58 57 57 57 59 59 59 59 59 59 59
65 65 64 63 63 62 60 60 60 58 55 59 55 53 53 55 55 54 53 52 55 49 50 52 52 51 51 53 55 59 59 58 58 59 60 60 60 60 60 60 60 60 60
64 65 64 63 62 61 60 60 60 58 54 57 58 54 51 50 53 54 56 53 55 51 51 51 52 51 51 51 54 56 57 58 60 59 60 61 61 61 61 61 61 61 61
62 62 63 63 61 61 60 60 60 59 56 55 57 55 55 52 51 52 53 54 53 52 55 52 52 53 53 54 55 54 54 54 57 59 59 58 59 60 60 60 60 60 60
62 63 64 63 61 61 60 60 60 59 57 56 55 55 54 53 55 51 51 52 53 51 51 53 54 54 55 56 57 54 52 51 52 55 56 56 56 57 57 57 57 57 57
63 62 62 62 62 60 60 59 60 58 58 57 56 55 53 52 51 52 51 52 52 53 52 53 55 55 56 56 54 50 49 49 50 52 53 53 53 53 53 54 55 55 55
60 60 61 60 60 60 59 59 59 58 57 56 55 55 55 53 53 52 51 51 51 52 53 57 55 57 55 56 50 49 47 47 49 50 51 51 51 51 50 50 50 50 50
60 60 59 59 58 58 59 59 59 59 58 58 57 57 56 55 53 52 50 52 51 53 55 54 56 55 54 50 46 45 43 44 44 45 46 45 44 43 43 44 44 45 44
61 60 59 57 57 57 57 58 58 58 59 59 59 59 55 55 55 53 53 53 52 51 50 53 53 52 51 48 46 42 41 41 41 41 40 40 39 38 37 36 35 35 34
62 60 59 58 56 56 56 57 57 58 58 59 58 57 57 56 55 55 55 55 55 52 51 53 51 49 46 43 42 39 38 39 39 36 35 34 33 32 30 28 27 28 29
61 61 59 58 56 55 55 56 56 57 57 57 57 57 57 57 57 58 59 59 58 56 53 53 48 44 43 42 41 39 37 35 35 35 33 30 29 27 25 24 25 26 27
61 61 60 59 57 56 55 55 55 56 56 56 57 57 57 56 58 59 58 57 56 56 55 52 43 40 38 38 38 38 36 33 32 30 30 29 27 25 22 20 21 23 25
59 59 60 60 59 58 56 56 55 55 55 55 55 56 56 57 58 57 56 56 57 54 54 50 41 37 36 35 33 34 34 32 29 26 21 27 24 21 19 16 19 21 23
58 58 58 59 60 59 58 57 57 57 56 55 55 55 55 56 56 56 54 54 53 53 51 42 36 33 32 31 32 30 29 30 27 19 19 18 22 22 17 13 18 17 21
57 58 58 59 59 59 59 58 57 57 56 55 53 51 52 51 45 46 52 53 52 45 42 38 33 31 28 28 27 26 26 27 24 21 18 21 22 22 20 18 14 15 19
57 57 57 55 52 48 41 44 52 53 50 42 38 37 39 38 36 35 34 33 39 42 37 34 30 27 25 24 24 24 25 27 24 17 16 21 18 16 15 10 14 15 16
55 51 48 47 44 42 39 40 39 39 37 36 35 34 33 34 33 31 30 29 29 30 31 31 27 24 23 23 23 23 23 22 18 11 16 17 14 11 9 8 11 13 15
47 43 41 41 39 37 37 36 35 35 33 33 33 33 32 31 31 28 26 23 23 23 23 22 22 22 21 20 21 21 23 22 19 13 12 20 13 9 10 10 8 12 16
42 40 39 37 37 36 35 35 34 32 31 30 31 31 31 29 30 30 24 22 21 22 24 25 25 24 22 21 21 23 24 24 15 10 12 14 10 8 9 10 9 15 17
38 37 36 36 35 35 35 34 33 31 29 27 28 28 29 28 28 26 22 20 19 19 19 17 16 17 17 16 18 18 19 17 17 14 11 14 9 7 13 11 12 14 16

GFSMA_sfc_dewp_129.txt.gz
Dewpoint
67 66 65 66 66 66 65 64 63 63 63 63 62 60 59 57 58 59 60 61 62 62 61 62 60 61 60 59 59 58 58 57 58 58 57 57 56 55 55 54 53 53 53
66 65 64 65 65 65 65 64 64 63 63 63 63 62 57 57 57 58 60 60 61 61 61 60 60 60 60 59 59 58 57 56 57 57 57 57 56 55 55 54 53 52 51
66 65 65 64 64 64 64 64 63 63 62 62 62 62 57 56 57 58 59 59 59 60 61 61 61 60 59 59 58 58 57 57 56 57 56 56 55 55 54 53 53 52 51
67 65 65 64 64 64 64 63 62 61 61 61 61 60 57 55 56 57 58 58 58 58 60 60 60 61 60 58 57 57 57 57 57 56 56 55 55 55 55 54 53 52 52
67 66 64 64 64 64 63 62 61 60 60 61 61 61 59 55 55 56 57 57 57 58 58 60 59 59 60 59 57 57 57 56 56 56 56 55 55 55 55 55 55 55 55
67 66 65 65 64 62 62 62 60 61 60 60 61 60 59 55 55 56 56 56 56 57 57 57 57 57 59 59 59 57 57 57 57 57 57 56 56 56 56 56 56 56 57
67 66 65 65 63 62 62 61 61 60 60 60 59 59 59 55 53 55 55 55 55 56 57 57 56 55 56 59 60 58 58 58 57 57 56 56 57 58 59 58 58 58 58
67 66 65 65 64 62 62 61 60 60 59 60 58 56 54 55 53 53 53 53 54 55 56 56 55 54 55 57 57 59 59 58 57 57 57 59 59 59 60 60 59 59 60
66 66 65 65 64 63 62 61 60 59 58 59 59 55 52 51 52 54 52 53 53 53 55 55 54 54 54 56 57 58 57 58 60 59 60 60 60 61 60 60 60 59 59
66 66 65 64 64 63 62 61 61 59 59 57 59 57 53 52 51 50 53 52 52 53 54 54 53 53 54 55 56 55 54 54 57 60 59 59 58 58 57 57 56 57 57
65 65 65 63 63 63 62 61 61 60 59 57 58 57 54 52 51 49 48 51 54 51 54 54 53 53 53 54 55 55 53 52 54 56 57 56 56 56 55 55 56 57 56
63 64 64 63 62 62 61 61 61 60 59 58 58 58 53 51 50 50 49 48 49 51 52 52 53 54 52 52 52 52 51 50 52 54 55 55 55 55 56 56 55 54 53
62 62 63 63 62 61 61 61 60 60 59 58 58 58 56 54 52 51 50 49 49 51 52 54 55 53 50 50 50 50 50 49 50 52 53 52 52 52 52 52 50 49 49
61 62 62 62 62 61 61 61 60 60 60 59 58 59 58 57 54 52 51 49 50 50 52 52 48 47 46 46 47 47 47 46 47 47 47 47 47 46 44 43 42 41 41
61 61 62 62 62 61 61 61 60 60 60 60 59 59 58 57 57 54 52 51 49 49 49 52 48 46 44 44 44 43 42 43 43 43 42 41 39 38 36 35 35 35 38
61 60 59 59 59 59 60 60 59 60 59 59 59 58 58 57 57 57 54 53 51 49 50 50 47 44 42 41 42 40 39 39 38 37 36 35 34 34 34 33 32 34 34
60 60 59 58 58 57 57 58 58 58 58 58 58 58 58 58 57 57 57 55 53 51 49 44 43 41 41 40 38 37 36 35 35 34 33 32 31 30 30 29 30 31 31
61 60 59 57 57 57 57 57 57 57 58 57 57 58 58 57 57 57 57 55 55 53 50 42 41 40 38 37 36 34 34 33 33 32 31 29 27 27 27 26 26 27 26
61 60 59 57 56 56 56 57 57 57 57 57 57 58 58 57 56 57 56 56 55 52 49 44 40 38 37 36 34 33 32 32 32 32 30 27 24 23 24 24 24 24 24
61 60 59 58 57 56 56 56 56 56 57 57 57 57 57 57 57 57 55 54 53 50 47 43 38 35 34 34 33 30 28 29 27 26 28 27 25 22 22 22 23 22 23
60 60 59 59 57 57 56 56 55 55 56 56 56 56 56 55 52 53 55 53 51 46 43 40 35 32 30 31 30 31 28 26 24 25 24 24 27 29 28 21 20 19 18
59 58 59 59 58 56 47 46 52 55 54 54 53 52 54 50 49 46 45 46 48 46 42 40 38 35 31 33 30 30 26 25 24 22 24 23 20 21 19 19 19 17 15
57 54 52 51 48 46 40 43 44 51 51 50 51 43 38 41 41 38 36 35 35 37 39 39 38 35 31 30 31 29 29 28 23 17 24 20 18 18 16 16 17 15 17
52 48 45 43 40 38 38 39 37 37 35 34 34 35 36 34 37 35 36 32 31 32 33 33 34 31 30 31 31 30 26 20 17 15 25 24 19 15 15 17 16 16 18
46 42 40 38 37 35 36 36 36 34 33 32 33 33 33 34 35 37 33 31 30 30 32 32 32 32 31 31 29 24 22 23 22 15 15 23 18 14 13 15 14 20 19
41 38 36 36 35 35 35 35 35 33 30 30 30 32 33 32 32 33 32 29 26 26 27 27 28 28 28 28 28 26 26 24 21 18 14 21 15 16 16 16 14 16 18

GFSMA_sfc_dewp_132.txt.gz
Dewpoint
66 64 64 64 64 65 64 64 63 62 62 62 62 60 58 59 60 61 62 62 63 64 63 62 61 62 61 60 60 59 59 58 58 58 58 57 56 56 55 54 54 53 53
67 65 64 64 64 65 64 64 62 62 63 63 62 62 60 58 60 60 59 61 62 63 63 61 62 60 60 60 60 59 58 58 58 58 57 56 55 55 54 53 52 52 51
67 66 64 64 64 65 64 63 62 63 63 63 62 62 59 57 58 59 59 60 60 60 61 61 62 60 60 59 59 58 58 59 58 58 57 56 56 55 54 53 53 52 51
67 65 64 64 64 64 64 63 62 62 61 61 61 60 59 57 57 58 59 58 58 59 59 60 61 61 61 59 59 58 58 57 57 57 57 56 56 55 54 53 53 52 52
67 65 65 64 64 63 63 63 61 61 60 60 60 59 59 56 56 57 58 58 57 58 58 60 60 60 60 60 58 58 57 57 57 57 56 56 56 56 55 55 55 55 55
67 66 65 64 64 63 63 62 60 60 60 60 60 59 60 57 56 57 57 57 57 58 58 58 58 58 59 60 59 58 58 57 56 56 56 56 56 56 56 56 56 56 56
67 66 65 64 64 63 62 62 60 59 59 60 59 59 59 58 56 56 56 56 56 57 57 57 57 56 58 59 60 59 57 57 57 56 56 57 57 57 57 57 57 57 58
67 65 64 64 63 63 62 61 60 59 58 60 58 57 55 56 56 56 56 55 55 56 56 57 56 55 56 56 57 59 58 57 56 56 57 58 59 59 59 58 59 59 59
66 65 64 64 63 63 62 61 61 60 58 60 59 56 53 52 54 55 54 55 55 55 56 56 55 55 55 56 57 57 56 58 58 58 58 60 60 60 60 60 60 59 58
65 65 65 64 64 63 62 61 61 60 59 58 59 57 53 53 50 51 53 54 54 54 55 55 55 55 54 56 56 55 54 54 57 59 60 60 60 60 59 58 57 56 58
65 65 65 64 64 63 63 62 61 60 60 58 58 57 55 53 51 50 50 52 53 53 55 55 55 54 54 54 55 55 53 52 53 58 59 59 58 57 57 56 57 58 56
64 65 65 65 64 63 62 62 61 61 59 59 59 58 55 52 51 49 49 50 51 52 54 54 54 53 54 54 55 53 53 51 52 55 57 57 56 56 56 57 56 55 54
62 64 64 64 63 63 62 62 61 61 60 59 58 58 58 55 53 51 49 50 51 51 53 52 53 51 51 50 50 51 51 50 51 53 54 55 55 56 54 53 53 52 51
61 63 64 63 63 62 62 62 61 61 60 59 58 58 59 57 56 53 50 49 49 50 51 50 47 48 48 49 50 49 49 48 48 49 50 50 50 49 47 47 46 46 45
61 62 63 63 62 62 61 61 60 60 60 60 60 58 59 59 58 56 52 51 48 48 49 49 46 46 46 46 46 46 45 46 45 45 44 44 43 42 41 40 41 42 40
62 61 62 62 62 62 61 60 60 60 60 60 60 59 58 59 58 57 56 54 51 49 48 49 46 44 43 42 43 42 42 42 41 40 40 39 38 38 37 37 38 37 35
62 61 61 61 61 60 61 60 60 60 59 59 60 59 58 59 58 57 56 54 52 50 49 43 42 42 41 40 39 38 37 37 37 36 36 36 35 35 34 34 35 33 30
62 61 60 59 58 58 58 58 58 58 58 58 58 58 58 59 58 58 56 55 54 52 49 42 39 39 37 37 36 35 35 34 34 34 33 33 33 31 30 31 31 28 27
61 61 60 58 58 57 57 57 57 57 57 57 58 58 58 58 58 57 57 56 55 53 49 41 39 39 36 35 33 33 33 33 33 34 33 31 30 29 28 28 27 26 26
59 60 59 58 57 56 56 56 57 57 56 57 57 57 57 58 57 57 56 56 56 51 47 44 39 37 35 34 33 30 29 31 30 31 31 30 28 28 26 26 24 25 25
57 60 60 58 57 56 56 55 55 56 56 56 56 56 56 55 51 53 56 55 53 49 46 41 37 34 32 31 30 31 28 27 28 29 29 30 30 27 26 24 23 22 20
52 59 59 58 57 56 48 46 52 55 55 55 54 54 54 49 49 46 46 46 49 47 44 42 39 35 33 33 32 30 26 25 24 27 27 26 27 28 26 21 21 20 18
47 55 58 58 57 55 45 45 45 54 53 53 53 49 46 44 47 41 42 42 41 42 42 43 39 38 34 35 33 30 29 29 26 26 27 22 21 19 18 18 20 19 19
45 53 53 51 49 42 40 42 41 42 38 37 37 36 39 35 38 39 36 37 36 37 38 40 42 39 37 36 35 34 31 24 25 27 29 22 22 18 17 20 19 19 19
42 46 46 44 42 37 37 37 39 36 34 33 33 33 34 34 37 39 36 33 32 32 35 35 35 35 35 35 31 28 25 24 21 22 23 25 20 15 16 15 17 20 21
42 40 37 40 38 35 36 37 37 35 32 31 32 32 33 33 35 35 35 34 31 31 31 31 31 31 31 32 31 31 28 25 21 20 22 22 13 18 16 15 15 17 18

GFSMA_sfc_dewp_135.txt.gz
Dewpoint
65 63 62 63 63 64 63 63 63 61 61 61 61 60 60 61 62 62 63 63 63 65 64 63 63 63 62 61 61 60 59 58 58 58 57 56 56 56 55 55 54 54 53
67 65 63 63 63 64 63 62 62 61 61 63 61 61 60 60 61 61 62 62 62 63 64 63 62 62 61 61 60 59 58 57 59 59 58 57 56 55 55 54 53 52 52
67 65 64 63 63 64 63 63 61 61 61 63 61 61 60 59 60 60 60 61 61 61 62 62 63 62 61 60 59 59 58 59 59 58 57 56 55 55 54 53 52 52 51
67 66 64 64 64 64 63 62 61 60 60 60 60 61 59 59 60 60 59 59 59 60 60 60 62 61 61 60 59 59 59 59 59 58 57 56 55 55 54 54 53 52 52
66 66 65 64 64 64 63 63 62 61 59 59 60 60 59 58 59 59 58 58 58 58 58 59 59 60 61 61 58 59 58 59 59 58 57 56 56 55 54 54 53 54 54
66 66 65 64 63 64 63 63 61 60 60 60 60 59 59 59 59 59 58 58 58 58 58 58 58 58 59 61 60 59 59 58 58 58 57 56 56 56 56 55 55 56 56
67 66 66 64 64 63 63 63 61 60 58 60 58 58 58 58 58 58 58 57 57 58 57 57 57 57 58 59 59 59 58 59 58 56 56 56 56 56 56 56 57 57 58
67 66 66 65 64 63 63 62 61 59 58 59 57 56 53 55 57 57 57 57 56 57 57 57 57 56 57 56 56 59 59 58 56 56 55 57 57 57 57 58 58 58 59
66 67 66 65 64 63 62 62 61 60 58 59 58 57 53 52 54 56 56 56 56 56 57 57 56 55 56 56 57 57 56 57 58 57 57 59 59 59 58 58 59 59 59
65 66 65 64 64 63 62 62 62 60 59 58 58 58 54 54 52 51 56 56 56 55 56 56 56 55 55 56 56 55 54 54 56 59 59 60 60 59 59 60 59 58 58
64 65 64 64 63 63 63 62 61 61 60 59 58 57 56 53 53 52 51 53 54 55 55 56 56 55 54 55 56 55 53 52 53 58 59 60 60 60 60 58 57 58 58
62 64 64 64 63 63 63 62 62 61 60 60 59 58 56 54 52 50 50 52 52 54 55 55 55 55 54 54 55 54 52 51 52 56 59 59 59 58 57 57 58 57 56
61 62 63 63 63 63 63 62 62 61 61 60 59 58 58 56 54 52 51 51 52 52 53 51 53 53 53 53 54 53 53 50 52 54 55 56 56 57 58 56 56 54 53
60 61 62 63 64 63 63 62 62 61 61 60 59 59 58 58 57 54 51 51 51 51 52 50 48 50 50 50 50 51 50 49 50 51 52 53 53 53 53 52 51 50 48
61 61 63 63 63 63 62 62 62 61 61 60 60 59 58 59 58 57 55 54 52 50 50 48 46 47 48 49 49 50 50 48 48 47 47 47 48 47 47 47 46 45 43
60 60 61 62 62 62 62 61 61 61 60 60 60 59 58 59 59 58 57 56 55 52 50 49 45 44 45 45 46 46 46 45 45 44 43 43 43 43 43 43 42 40 37
59 60 61 61 61 61 61 61 61 60 60 59 60 59 59 59 59 59 58 56 55 54 51 42 43 43 42 42 41 41 40 40 40 40 40 40 40 40 40 39 37 35 33
57 59 61 61 61 61 61 60 60 60 59 59 59 59 59 59 58 59 58 56 55 55 50 41 40 39 39 39 37 36 36 36 37 38 38 37 37 37 38 36 32 31 30
51 57 60 59 59 60 60 60 60 59 59 59 59 58 58 58 58 58 58 56 56 55 50 41 39 40 36 36 34 34 34 34 34 36 35 34 34 35 35 33 30 28 28
47 50 57 60 59 59 59 58 59 58 58 58 57 57 57 57 57 57 57 56 55 52 47 44 40 38 35 35 34 31 31 33 32 33 34 33 33 32 31 30 28 29 28
44 48 51 59 59 58 57 57 57 56 56 56 56 56 57 55 51 54 57 56 55 51 46 43 38 35 33 32 32 32 31 30 29 31 30 31 31 31 31 30 29 28 24
42 43 47 51 58 57 49 47 53 55 55 55 54 55 55 50 49 46 46 46 52 49 46 41 39 36 34 33 33 31 28 27 25 29 29 29 30 29 29 29 27 24 22
40 41 43 47 56 57 46 46 46 54 54 54 54 52 49 49 48 49 43 43 43 42 43 45 40 39 35 35 33 31 31 31 27 28 29 26 29 28 29 22 24 22 21
39 40 41 46 52 53 43 44 44 51 49 45 43 42 45 40 38 41 38 37 38 44 43 44 43 41 39 36 35 34 33 29 28 29 28 23 26 24 22 22 23 21 21
38 40 41 42 44 47 40 41 43 41 37 34 33 34 35 35 37 40 37 36 33 32 37 40 42 40 38 37 36 31 29 28 23 25 27 25 24 21 19 19 20 21 21
37 40 38 38 37 39 38 39 42 39 35 33 33 33 34 34 36 36 37 36 34 32 33 34 35 36 36 34 34 35 33 31 23 22 25 23 23 23 20 16 17 18 19